Wetterdaten: Donnerstag, 18.05.2023
Datum Zeit Temp. Aussen Temp. o. S. Temp +5cm Feuchte Auss Luftdruck Regen Sonnenschein Regendauer Solar Windben Empfang
18.05.2023 00:00 9,7 C 8,3 C 5,0 C 75 % 1027,6 hPa 0,0 l/m 0 min 0 min 0 W/m 0,0 km/h (0 Bft) 97,87 %
18.05.2023 00:02 9,7 C 8,3 C 5,0 C 75 % 1027,5 hPa 0,0 l/m 0 min 0 min 0 W/m 0,0 km/h (0 Bft) 100,00 %
18.05.2023 00:04 9,7 C 8,3 C 5,0 C 75 % 1027,6 hPa 0,0 l/m 0 min 0 min 0 W/m 0,0 km/h (0 Bft) 97,96 %
18.05.2023 00:07 9,6 C 7,8 C 5,0 C 76 % 1027,6 hPa 0,0 l/m 0 min 0 min 0 W/m 3,2 km/h (1 Bft) 97,96 %
18.05.2023 00:08 9,6 C 7,8 C 5,0 C 76 % 1027,6 hPa 0,0 l/m 0 min 0 min 0 W/m 3,2 km/h (1 Bft) 98,89 %
18.05.2023 00:10 9,6 C 7,8 C 5,0 C 76 % 1027,6 hPa 0,0 l/m 0 min 0 min 0 W/m 3,2 km/h (1 Bft) 100,00 %
18.05.2023 00:12 9,6 C 7,8 C 5,0 C 76 % 1027,6 hPa 0,0 l/m 0 min 0 min 0 W/m 0,0 km/h (0 Bft) 100,00 %
18.05.2023 00:14 9,5 C 7,8 C 5,0 C 76 % 1027,6 hPa 0,0 l/m 0 min 0 min 0 W/m 6,4 km/h (2 Bft) 97,78 %
18.05.2023 00:16 9,4 C 7,8 C 5,0 C 76 % 1027,6 hPa 0,0 l/m 0 min 0 min 0 W/m 3,2 km/h (1 Bft) 100,00 %
18.05.2023 00:18 9,3 C 7,8 C 5,0 C 76 % 1027,6 hPa 0,0 l/m 0 min 0 min 0 W/m 3,2 km/h (1 Bft) 100,00 %
18.05.2023 00:20 9,3 C 7,8 C 5,0 C 76 % 1027,6 hPa 0,0 l/m 0 min 0 min 0 W/m 3,2 km/h (1 Bft) 97,87 %
18.05.2023 00:22 9,2 C 7,8 C 5,0 C 76 % 1027,6 hPa 0,0 l/m 0 min 0 min 0 W/m 6,4 km/h (2 Bft) 97,92 %
18.05.2023 00:24 9,2 C 8,3 C 5,0 C 76 % 1027,6 hPa 0,0 l/m 0 min 0 min 0 W/m 3,2 km/h (1 Bft) 97,87 %
18.05.2023 00:26 9,2 C 7,8 C 5,0 C 76 % 1027,6 hPa 0,0 l/m 0 min 0 min 0 W/m 3,2 km/h (1 Bft) 97,87 %
18.05.2023 00:28 9,1 C 7,8 C 5,0 C 76 % 1027,6 hPa 0,0 l/m 0 min 0 min 0 W/m 3,2 km/h (1 Bft) 97,83 %
18.05.2023 00:30 9,1 C 7,8 C 5,0 C 76 % 1027,6 hPa 0,0 l/m 0 min 0 min 0 W/m 3,2 km/h (1 Bft) 97,87 %
18.05.2023 00:32 9,1 C 7,8 C 5,0 C 76 % 1027,6 hPa 0,0 l/m 0 min 0 min 0 W/m 3,2 km/h (1 Bft) 97,87 %
18.05.2023 00:34 9,0 C 7,8 C 4,4 C 76 % 1027,6 hPa 0,0 l/m 0 min 0 min 0 W/m 6,4 km/h (2 Bft) 97,67 %
18.05.2023 00:36 9,0 C 7,8 C 4,4 C 76 % 1027,6 hPa 0,0 l/m 0 min 0 min 0 W/m 3,2 km/h (1 Bft) 97,83 %
18.05.2023 00:38 8,9 C 7,8 C 5,0 C 76 % 1027,6 hPa 0,0 l/m 0 min 0 min 0 W/m 3,2 km/h (1 Bft) 97,87 %
18.05.2023 00:40 8,9 C 7,8 C 5,0 C 76 % 1027,7 hPa 0,0 l/m 0 min 0 min 0 W/m 3,2 km/h (1 Bft) 95,74 %
18.05.2023 00:42 8,9 C 7,8 C 5,0 C 76 % 1027,7 hPa 0,0 l/m 0 min 0 min 0 W/m 3,2 km/h (1 Bft) 98,00 %
18.05.2023 00:44 8,8 C 7,8 C 4,4 C 76 % 1027,7 hPa 0,0 l/m 0 min 0 min 0 W/m 3,2 km/h (1 Bft) 100,00 %
18.05.2023 00:46 8,8 C 7,8 C 4,4 C 76 % 1027,7 hPa 0,0 l/m 0 min 0 min 0 W/m 3,2 km/h (1 Bft) 100,00 %
18.05.2023 00:48 8,8 C 7,8 C 4,4 C 76 % 1027,7 hPa 0,0 l/m 0 min 0 min 0 W/m 3,2 km/h (1 Bft) 100,00 %
18.05.2023 00:50 8,8 C 7,8 C 4,4 C 76 % 1027,7 hPa 0,0 l/m 0 min 0 min 0 W/m 3,2 km/h (1 Bft) 100,00 %
18.05.2023 00:52 8,8 C 7,8 C 4,4 C 77 % 1027,6 hPa 0,0 l/m 0 min 0 min 0 W/m 3,2 km/h (1 Bft) 100,00 %
18.05.2023 00:54 8,8 C 7,8 C 4,4 C 77 % 1027,7 hPa 0,0 l/m 0 min 0 min 0 W/m 3,2 km/h (1 Bft) 97,87 %
18.05.2023 00:56 8,7 C 7,8 C 4,4 C 76 % 1027,6 hPa 0,0 l/m 0 min 0 min 0 W/m 3,2 km/h (1 Bft) 95,74 %
18.05.2023 00:58 8,7 C 7,8 C 4,4 C 77 % 1027,7 hPa 0,0 l/m 0 min 0 min 0 W/m 3,2 km/h (1 Bft) 100,00 %
18.05.2023 01:00 8,7 C 7,8 C 4,4 C 77 % 1027,7 hPa 0,0 l/m 0 min 0 min 0 W/m 6,4 km/h (2 Bft) 97,87 %
18.05.2023 01:02 8,6 C 7,8 C 4,4 C 77 % 1027,7 hPa 0,0 l/m 0 min 0 min 0 W/m 3,2 km/h (1 Bft) 100,00 %
18.05.2023 01:04 8,6 C 7,8 C 4,4 C 77 % 1027,7 hPa 0,0 l/m 0 min 0 min 0 W/m 3,2 km/h (1 Bft) 97,87 %
18.05.2023 01:06 8,6 C 7,8 C 4,4 C 77 % 1027,7 hPa 0,0 l/m 0 min 0 min 0 W/m 3,2 km/h (1 Bft) 100,00 %
18.05.2023 01:08 8,6 C 7,8 C 4,4 C 77 % 1027,7 hPa 0,0 l/m 0 min 0 min 0 W/m 3,2 km/h (1 Bft) 100,00 %
18.05.2023 01:10 8,6 C 7,8 C 4,4 C 77 % 1027,8 hPa 0,0 l/m 0 min 0 min 0 W/m 6,4 km/h (2 Bft) 100,00 %
18.05.2023 01:12 8,5 C 7,2 C 4,4 C 77 % 1027,8 hPa 0,0 l/m 0 min 0 min 0 W/m 3,2 km/h (1 Bft) 95,74 %
18.05.2023 01:14 8,5 C 7,2 C 4,4 C 77 % 1027,8 hPa 0,0 l/m 0 min 0 min 0 W/m 6,4 km/h (2 Bft) 97,87 %
18.05.2023 01:16 8,4 C 7,8 C 4,4 C 77 % 1027,7 hPa 0,0 l/m 0 min 0 min 0 W/m 9,7 km/h (2 Bft) 97,87 %
18.05.2023 01:18 8,4 C 7,8 C 4,4 C 77 % 1027,8 hPa 0,0 l/m 0 min 0 min 0 W/m 12,9 km/h (3 Bft) 95,74 %
18.05.2023 01:20 8,4 C 7,8 C 4,4 C 77 % 1027,7 hPa 0,0 l/m 0 min 0 min 0 W/m 6,4 km/h (2 Bft) 94,74 %
18.05.2023 01:22 8,4 C 7,8 C 4,4 C 77 % 1027,8 hPa 0,0 l/m 0 min 0 min 0 W/m 12,9 km/h (3 Bft) 95,74 %
18.05.2023 01:24 8,4 C 7,8 C 4,4 C 77 % 1027,7 hPa 0,0 l/m 0 min 0 min 0 W/m 6,4 km/h (2 Bft) 93,48 %
18.05.2023 01:26 8,4 C 7,8 C 4,4 C 77 % 1027,8 hPa 0,0 l/m 0 min 0 min 0 W/m 6,4 km/h (2 Bft) 95,74 %
18.05.2023 01:28 8,4 C 7,8 C 4,4 C 77 % 1027,8 hPa 0,0 l/m 0 min 0 min 0 W/m 12,9 km/h (3 Bft) 94,59 %
18.05.2023 01:30 8,3 C 7,8 C 4,4 C 77 % 1027,7 hPa 0,0 l/m 0 min 0 min 0 W/m 6,4 km/h (2 Bft) 95,74 %
18.05.2023 01:32 8,3 C 7,8 C 4,4 C 77 % 1027,7 hPa 0,0 l/m 0 min 0 min 0 W/m 6,4 km/h (2 Bft) 95,74 %
18.05.2023 01:34 8,3 C 7,8 C 4,4 C 77 % 1027,7 hPa 0,0 l/m 0 min 0 min 0 W/m 6,4 km/h (2 Bft) 95,74 %
18.05.2023 01:36 8,3 C 7,8 C 4,4 C 77 % 1027,7 hPa 0,0 l/m 0 min 0 min 0 W/m 3,2 km/h (1 Bft) 93,48 %
18.05.2023 01:38 8,3 C 7,2 C 4,4 C 77 % 1027,8 hPa 0,0 l/m 0 min 0 min 0 W/m 6,4 km/h (2 Bft) 91,49 %
18.05.2023 01:40 8,3 C 7,2 C 4,4 C 77 % 1027,7 hPa 0,0 l/m 0 min 0 min 0 W/m 3,2 km/h (1 Bft) 95,74 %
18.05.2023 01:42 8,3 C 7,2 C 4,4 C 77 % 1027,8 hPa 0,0 l/m 0 min 0 min 0 W/m 3,2 km/h (1 Bft) 93,62 %
18.05.2023 01:44 8,3 C 7,2 C 3,9 C 77 % 1027,7 hPa 0,0 l/m 0 min 0 min 0 W/m 6,4 km/h (2 Bft) 94,34 %
18.05.2023 01:46 8,3 C 7,2 C 3,9 C 77 % 1027,8 hPa 0,0 l/m 0 min 0 min 0 W/m 0,0 km/h (0 Bft) 93,62 %
18.05.2023 01:48 8,2 C 7,2 C 3,9 C 77 % 1027,7 hPa 0,0 l/m 0 min 0 min 0 W/m 3,2 km/h (1 Bft) 95,74 %
18.05.2023 01:50 8,2 C 7,2 C 3,9 C 77 % 1027,8 hPa 0,0 l/m 0 min 0 min 0 W/m 3,2 km/h (1 Bft) 53,33 %
18.05.2023 01:52 8,2 C 7,2 C 3,9 C 78 % 1027,7 hPa 0,0 l/m 0 min 0 min 0 W/m 3,2 km/h (1 Bft) 93,48 %
18.05.2023 01:54 8,2 C 7,2 C 3,9 C 78 % 1027,7 hPa 0,0 l/m 0 min 0 min 0 W/m 3,2 km/h (1 Bft) 93,62 %
18.05.2023 01:56 8,1 C 7,2 C 3,9 C 78 % 1027,7 hPa 0,0 l/m 0 min 0 min 0 W/m 3,2 km/h (1 Bft) 95,74 %
18.05.2023 01:58 8,1 C 7,2 C 3,9 C 78 % 1027,7 hPa 0,0 l/m 0 min 0 min 0 W/m 3,2 km/h (1 Bft) 93,62 %
18.05.2023 02:00 8,1 C 7,2 C 3,9 C 78 % 1027,6 hPa 0,0 l/m 0 min 0 min 0 W/m 3,2 km/h (1 Bft) 93,62 %
18.05.2023 02:02 8,1 C 7,2 C 3,9 C 78 % 1027,7 hPa 0,0 l/m 0 min 0 min 0 W/m 6,4 km/h (2 Bft) 93,62 %
18.05.2023 02:04 8,1 C 7,2 C 3,9 C 78 % 1027,6 hPa 0,0 l/m 0 min 0 min 0 W/m 3,2 km/h (1 Bft) 95,24 %
18.05.2023 02:05 8,0 C 7,2 C 3,9 C 78 % 1027,6 hPa 0,0 l/m 0 min 0 min 0 W/m 6,4 km/h (2 Bft) 96,49 %
18.05.2023 02:08 7,9 C 6,7 C 3,9 C 78 % 1027,6 hPa 0,0 l/m 0 min 0 min 0 W/m 3,2 km/h (1 Bft) 100,00 %
18.05.2023 02:10 7,9 C 6,7 C 3,9 C 78 % 1027,6 hPa 0,0 l/m 0 min 0 min 0 W/m 6,4 km/h (2 Bft) 100,00 %
18.05.2023 02:14 7,9 C 6,7 C 3,3 C 79 % 1027,7 hPa 0,0 l/m 0 min 0 min 0 W/m 3,2 km/h (1 Bft) 92,31 %
18.05.2023 02:16 7,9 C 6,7 C 3,9 C 79 % 1027,6 hPa 0,0 l/m 0 min 0 min 0 W/m 6,4 km/h (2 Bft) 95,74 %
18.05.2023 02:18 7,8 C 6,7 C 3,3 C 79 % 1027,7 hPa 0,0 l/m 0 min 0 min 0 W/m 3,2 km/h (1 Bft) 97,87 %
18.05.2023 02:20 7,8 C 6,7 C 3,3 C 79 % 1027,6 hPa 0,0 l/m 0 min 0 min 0 W/m 3,2 km/h (1 Bft) 100,00 %
18.05.2023 02:22 7,8 C 6,7 C 3,3 C 79 % 1027,7 hPa 0,0 l/m 0 min 0 min 0 W/m 6,4 km/h (2 Bft) 97,83 %
18.05.2023 02:24 7,7 C 6,7 C 3,3 C 79 % 1027,7 hPa 0,0 l/m 0 min 0 min 0 W/m 3,2 km/h (1 Bft) 95,74 %
18.05.2023 02:26 7,7 C 6,7 C 3,3 C 79 % 1027,7 hPa 0,0 l/m 0 min 0 min 0 W/m 3,2 km/h (1 Bft) 97,92 %
18.05.2023 02:28 7,7 C 6,7 C 3,3 C 79 % 1027,7 hPa 0,0 l/m 0 min 0 min 0 W/m 3,2 km/h (1 Bft) 100,00 %
18.05.2023 02:30 7,7 C 6,7 C 3,3 C 79 % 1027,8 hPa 0,0 l/m 0 min 0 min 0 W/m 3,2 km/h (1 Bft) 97,87 %
18.05.2023 02:32 7,7 C 6,7 C 3,3 C 79 % 1027,7 hPa 0,0 l/m 0 min 0 min 0 W/m 3,2 km/h (1 Bft) 97,87 %
18.05.2023 02:34 7,7 C 6,7 C 3,3 C 79 % 1027,7 hPa 0,0 l/m 0 min 0 min 0 W/m 3,2 km/h (1 Bft) 100,00 %
18.05.2023 02:36 7,6 C 6,7 C 3,3 C 79 % 1027,7 hPa 0,0 l/m 0 min 0 min 0 W/m 3,2 km/h (1 Bft) 97,83 %
18.05.2023 02:38 7,6 C 6,7 C 3,3 C 79 % 1027,7 hPa 0,0 l/m 0 min 0 min 0 W/m 3,2 km/h (1 Bft) 97,87 %
18.05.2023 02:40 7,6 C 6,7 C 3,3 C 80 % 1027,7 hPa 0,0 l/m 0 min 0 min 0 W/m 3,2 km/h (1 Bft) 100,00 %
18.05.2023 02:42 7,6 C 6,7 C 3,3 C 80 % 1027,7 hPa 0,0 l/m 0 min 0 min 0 W/m 6,4 km/h (2 Bft) 95,74 %
18.05.2023 02:44 7,6 C 6,7 C 3,3 C 80 % 1027,7 hPa 0,0 l/m 0 min 0 min 0 W/m 3,2 km/h (1 Bft) 100,00 %
18.05.2023 02:46 7,5 C 6,7 C 3,3 C 80 % 1027,6 hPa 0,0 l/m 0 min 0 min 0 W/m 3,2 km/h (1 Bft) 100,00 %
18.05.2023 02:48 7,5 C 6,7 C 3,3 C 80 % 1027,6 hPa 0,0 l/m 0 min 0 min 0 W/m 6,4 km/h (2 Bft) 97,87 %
18.05.2023 02:50 7,5 C 6,7 C 3,3 C 80 % 1027,6 hPa 0,0 l/m 0 min 0 min 0 W/m 3,2 km/h (1 Bft) 97,83 %
18.05.2023 02:52 7,4 C 6,7 C 3,3 C 80 % 1027,7 hPa 0,0 l/m 0 min 0 min 0 W/m 6,4 km/h (2 Bft) 97,87 %
18.05.2023 02:54 7,4 C 6,7 C 3,3 C 81 % 1027,6 hPa 0,0 l/m 0 min 0 min 0 W/m 6,4 km/h (2 Bft) 95,74 %
18.05.2023 02:56 7,4 C 6,7 C 3,3 C 81 % 1027,6 hPa 0,0 l/m 0 min 0 min 0 W/m 3,2 km/h (1 Bft) 100,00 %
18.05.2023 02:58 7,4 C 6,7 C 3,3 C 80 % 1027,6 hPa 0,0 l/m 0 min 0 min 0 W/m 6,4 km/h (2 Bft) 100,00 %
18.05.2023 03:00 7,4 C 6,7 C 3,3 C 80 % 1027,6 hPa 0,0 l/m 0 min 0 min 0 W/m 3,2 km/h (1 Bft) 97,87 %
18.05.2023 03:02 7,4 C 6,7 C 3,3 C 80 % 1027,6 hPa 0,0 l/m 0 min 0 min 0 W/m 3,2 km/h (1 Bft) 100,00 %
18.05.2023 03:04 7,3 C 6,7 C 3,3 C 80 % 1027,7 hPa 0,0 l/m 0 min 0 min 0 W/m 6,4 km/h (2 Bft) 100,00 %
18.05.2023 03:08 7,3 C 6,1 C 3,3 C 81 % 1027,6 hPa 0,0 l/m 0 min 0 min 0 W/m 6,4 km/h (2 Bft) 100,00 %
18.05.2023 03:10 7,3 C 6,1 C 3,3 C 81 % 1027,6 hPa 0,0 l/m 0 min 0 min 0 W/m 3,2 km/h (1 Bft) 97,87 %
18.05.2023 03:12 7,3 C 6,1 C 3,3 C 81 % 1027,7 hPa 0,0 l/m 0 min 0 min 0 W/m 6,4 km/h (2 Bft) 100,00 %
18.05.2023 03:14 7,3 C 6,1 C 3,3 C 81 % 1027,6 hPa 0,0 l/m 0 min 0 min 0 W/m 3,2 km/h (1 Bft) 100,00 %
18.05.2023 03:16 7,2 C 6,1 C 3,3 C 81 % 1027,7 hPa 0,0 l/m 0 min 0 min 0 W/m 3,2 km/h (1 Bft) 100,00 %
18.05.2023 03:18 7,2 C 6,1 C 3,3 C 81 % 1027,7 hPa 0,0 l/m 0 min 0 min 0 W/m 6,4 km/h (2 Bft) 97,83 %
18.05.2023 03:20 7,2 C 6,1 C 3,3 C 81 % 1027,7 hPa 0,0 l/m 0 min 0 min 0 W/m 9,7 km/h (2 Bft) 97,87 %
18.05.2023 03:22 7,2 C 6,1 C 3,3 C 81 % 1027,7 hPa 0,0 l/m 0 min 0 min 0 W/m 3,2 km/h (1 Bft) 100,00 %
18.05.2023 03:24 7,2 C 6,1 C 3,3 C 81 % 1027,7 hPa 0,0 l/m 0 min 0 min 0 W/m 3,2 km/h (1 Bft) 97,87 %
18.05.2023 03:26 7,2 C 6,1 C 3,3 C 81 % 1027,7 hPa 0,0 l/m 0 min 0 min 0 W/m 6,4 km/h (2 Bft) 95,74 %
18.05.2023 03:28 7,1 C 6,1 C 3,3 C 81 % 1027,7 hPa 0,0 l/m 0 min 0 min 0 W/m 6,4 km/h (2 Bft) 95,74 %
18.05.2023 03:30 7,1 C 6,1 C 2,8 C 81 % 1027,6 hPa 0,0 l/m 0 min 0 min 0 W/m 3,2 km/h (1 Bft) 95,74 %
18.05.2023 03:32 7,1 C 6,1 C 2,8 C 81 % 1027,6 hPa 0,0 l/m 0 min 0 min 0 W/m 3,2 km/h (1 Bft) 93,48 %
18.05.2023 03:34 7,1 C 6,1 C 2,8 C 81 % 1027,6 hPa 0,0 l/m 0 min 0 min 0 W/m 3,2 km/h (1 Bft) 92,86 %
18.05.2023 03:36 7,1 C 6,1 C 2,8 C 81 % 1027,6 hPa 0,0 l/m 0 min 0 min 0 W/m 6,4 km/h (2 Bft) 95,74 %
18.05.2023 03:38 7,1 C 6,1 C 2,8 C 81 % 1027,6 hPa 0,0 l/m 0 min 0 min 0 W/m 12,9 km/h (3 Bft) 93,62 %
18.05.2023 03:40 7,1 C 6,1 C 2,8 C 81 % 1027,6 hPa 0,0 l/m 0 min 0 min 0 W/m 6,4 km/h (2 Bft) 91,49 %
18.05.2023 03:42 7,1 C 6,1 C 2,8 C 81 % 1027,6 hPa 0,0 l/m 0 min 0 min 0 W/m 3,2 km/h (1 Bft) 93,62 %
18.05.2023 03:44 7,1 C 6,1 C 2,8 C 82 % 1027,6 hPa 0,0 l/m 0 min 0 min 0 W/m 3,2 km/h (1 Bft) 95,74 %
18.05.2023 03:46 7,0 C 6,1 C 2,8 C 82 % 1027,6 hPa 0,0 l/m 0 min 0 min 0 W/m 3,2 km/h (1 Bft) 95,74 %
18.05.2023 03:48 7,0 C 6,1 C 2,8 C 82 % 1027,6 hPa 0,0 l/m 0 min 0 min 0 W/m 3,2 km/h (1 Bft) 95,65 %
18.05.2023 03:50 7,0 C 6,1 C 2,8 C 82 % 1027,6 hPa 0,0 l/m 0 min 0 min 0 W/m 3,2 km/h (1 Bft) 95,74 %
18.05.2023 03:52 6,9 C 6,1 C 2,8 C 82 % 1027,6 hPa 0,0 l/m 0 min 0 min 0 W/m 3,2 km/h (1 Bft) 93,62 %
18.05.2023 03:54 6,9 C 6,1 C 2,8 C 82 % 1027,6 hPa 0,0 l/m 0 min 0 min 0 W/m 6,4 km/h (2 Bft) 97,92 %
18.05.2023 03:56 6,9 C 6,1 C 2,8 C 82 % 1027,6 hPa 0,0 l/m 0 min 0 min 0 W/m 3,2 km/h (1 Bft) 97,87 %
18.05.2023 03:58 6,9 C 6,1 C 2,8 C 82 % 1027,6 hPa 0,0 l/m 0 min 0 min 0 W/m 3,2 km/h (1 Bft) 100,00 %
18.05.2023 04:00 6,9 C 6,1 C 2,8 C 82 % 1027,6 hPa 0,0 l/m 0 min 0 min 0 W/m 3,2 km/h (1 Bft) 100,00 %
18.05.2023 04:02 6,9 C 6,1 C 2,8 C 82 % 1027,6 hPa 0,0 l/m 0 min 0 min 0 W/m 6,4 km/h (2 Bft) 100,00 %
18.05.2023 04:04 6,9 C 6,1 C 2,8 C 83 % 1027,6 hPa 0,0 l/m 0 min 0 min 0 W/m 0,0 km/h (0 Bft) 100,00 %
18.05.2023 04:06 6,8 C 6,1 C 2,8 C 83 % 1027,5 hPa 0,0 l/m 0 min 0 min 0 W/m 3,2 km/h (1 Bft) 100,00 %
18.05.2023 04:08 6,8 C 5,6 C 2,8 C 83 % 1027,5 hPa 0,0 l/m 0 min 0 min 0 W/m 3,2 km/h (1 Bft) 100,00 %
18.05.2023 04:10 6,8 C 5,6 C 2,8 C 83 % 1027,6 hPa 0,0 l/m 0 min 0 min 0 W/m 6,4 km/h (2 Bft) 100,00 %
18.05.2023 04:12 6,8 C 5,6 C 2,8 C 83 % 1027,5 hPa 0,0 l/m 0 min 0 min 0 W/m 3,2 km/h (1 Bft) 100,00 %
18.05.2023 04:14 6,8 C 5,6 C 2,8 C 83 % 1027,6 hPa 0,0 l/m 0 min 0 min 0 W/m 3,2 km/h (1 Bft) 100,00 %
18.05.2023 04:16 6,8 C 5,6 C 2,8 C 83 % 1027,6 hPa 0,0 l/m 0 min 0 min 0 W/m 9,7 km/h (2 Bft) 97,87 %
18.05.2023 04:18 6,8 C 5,6 C 2,8 C 83 % 1027,6 hPa 0,0 l/m 0 min 0 min 0 W/m 6,4 km/h (2 Bft) 100,00 %
18.05.2023 04:20 6,7 C 6,1 C 2,8 C 83 % 1027,6 hPa 0,0 l/m 0 min 0 min 0 W/m 3,2 km/h (1 Bft) 100,00 %
18.05.2023 04:22 6,7 C 6,1 C 2,8 C 83 % 1027,7 hPa 0,0 l/m 0 min 0 min 0 W/m 3,2 km/h (1 Bft) 96,00 %
18.05.2023 04:24 6,7 C 6,1 C 2,8 C 83 % 1027,7 hPa 0,0 l/m 0 min 0 min 0 W/m 9,7 km/h (2 Bft) 100,00 %
18.05.2023 04:26 6,7 C 5,6 C 2,8 C 83 % 1027,7 hPa 0,0 l/m 0 min 0 min 0 W/m 3,2 km/h (1 Bft) 100,00 %
18.05.2023 04:28 6,7 C 5,6 C 2,8 C 83 % 1027,7 hPa 0,0 l/m 0 min 0 min 0 W/m 3,2 km/h (1 Bft) 100,00 %
18.05.2023 04:30 6,7 C 5,6 C 2,8 C 83 % 1027,7 hPa 0,0 l/m 0 min 0 min 0 W/m 3,2 km/h (1 Bft) 100,00 %
18.05.2023 04:32 6,6 C 5,6 C 2,8 C 83 % 1027,7 hPa 0,0 l/m 0 min 0 min 0 W/m 3,2 km/h (1 Bft) 100,00 %
18.05.2023 04:34 6,6 C 5,6 C 2,8 C 83 % 1027,7 hPa 0,0 l/m 0 min 0 min 0 W/m 6,4 km/h (2 Bft) 100,00 %
18.05.2023 04:36 6,6 C 5,6 C 2,8 C 83 % 1027,6 hPa 0,0 l/m 0 min 0 min 0 W/m 6,4 km/h (2 Bft) 100,00 %
18.05.2023 04:38 6,6 C 5,6 C 2,8 C 84 % 1027,6 hPa 0,0 l/m 0 min 0 min 0 W/m 6,4 km/h (2 Bft) 100,00 %
18.05.2023 04:40 6,6 C 5,6 C 2,8 C 84 % 1027,7 hPa 0,0 l/m 0 min 0 min 0 W/m 6,4 km/h (2 Bft) 100,00 %
18.05.2023 04:42 6,6 C 5,6 C 2,8 C 84 % 1027,6 hPa 0,0 l/m 0 min 0 min 0 W/m 6,4 km/h (2 Bft) 100,00 %
18.05.2023 04:44 6,6 C 5,6 C 2,8 C 84 % 1027,7 hPa 0,0 l/m 0 min 0 min 0 W/m 6,4 km/h (2 Bft) 97,87 %
18.05.2023 04:46 6,6 C 5,6 C 2,8 C 84 % 1027,7 hPa 0,0 l/m 0 min 0 min 0 W/m 9,7 km/h (2 Bft) 100,00 %
18.05.2023 04:48 6,6 C 5,6 C 2,8 C 84 % 1027,7 hPa 0,0 l/m 0 min 0 min 0 W/m 6,4 km/h (2 Bft) 100,00 %
18.05.2023 04:50 6,5 C 5,6 C 2,8 C 84 % 1027,7 hPa 0,0 l/m 0 min 0 min 0 W/m 9,7 km/h (2 Bft) 100,00 %
18.05.2023 04:52 6,5 C 5,6 C 2,8 C 84 % 1027,7 hPa 0,0 l/m 0 min 0 min 0 W/m 6,4 km/h (2 Bft) 97,87 %
18.05.2023 04:54 6,5 C 5,6 C 2,8 C 83 % 1027,7 hPa 0,0 l/m 0 min 0 min 0 W/m 6,4 km/h (2 Bft) 100,00 %
18.05.2023 04:56 6,5 C 5,6 C 2,8 C 83 % 1027,7 hPa 0,0 l/m 0 min 0 min 0 W/m 6,4 km/h (2 Bft) 100,00 %
18.05.2023 04:58 6,5 C 5,6 C 2,8 C 83 % 1027,7 hPa 0,0 l/m 0 min 0 min 0 W/m 3,2 km/h (1 Bft) 100,00 %
18.05.2023 05:00 6,5 C 5,6 C 2,2 C 84 % 1027,7 hPa 0,0 l/m 0 min 0 min 0 W/m 6,4 km/h (2 Bft) 97,87 %
18.05.2023 05:02 6,5 C 5,6 C 2,8 C 84 % 1027,7 hPa 0,0 l/m 0 min 0 min 0 W/m 9,7 km/h (2 Bft) 95,74 %
18.05.2023 05:04 6,5 C 5,6 C 2,8 C 84 % 1027,7 hPa 0,0 l/m 0 min 0 min 0 W/m 6,4 km/h (2 Bft) 97,83 %
18.05.2023 05:06 6,5 C 5,6 C 2,8 C 84 % 1027,7 hPa 0,0 l/m 0 min 0 min 0 W/m 9,7 km/h (2 Bft) 95,83 %
18.05.2023 05:08 6,5 C 5,6 C 2,8 C 84 % 1027,8 hPa 0,0 l/m 0 min 0 min 0 W/m 3,2 km/h (1 Bft) 97,87 %
18.05.2023 05:10 6,5 C 5,6 C 2,8 C 84 % 1027,7 hPa 0,0 l/m 0 min 0 min 0 W/m 6,4 km/h (2 Bft) 97,14 %
18.05.2023 05:12 6,5 C 5,6 C 2,2 C 84 % 1027,7 hPa 0,0 l/m 0 min 0 min 0 W/m 6,4 km/h (2 Bft) 97,87 %
18.05.2023 05:14 6,5 C 5,6 C 2,2 C 84 % 1027,7 hPa 0,0 l/m 0 min 0 min 0 W/m 6,4 km/h (2 Bft) 97,87 %
18.05.2023 05:16 6,4 C 5,6 C 2,2 C 84 % 1027,8 hPa 0,0 l/m 0 min 0 min 0 W/m 3,2 km/h (1 Bft) 95,74 %
18.05.2023 05:18 6,4 C 5,6 C 2,2 C 84 % 1027,7 hPa 0,0 l/m 0 min 0 min 0 W/m 6,4 km/h (2 Bft) 89,36 %
18.05.2023 05:20 6,4 C 5,6 C 2,2 C 84 % 1027,7 hPa 0,0 l/m 0 min 0 min 0 W/m 6,4 km/h (2 Bft) 95,65 %
18.05.2023 05:22 6,4 C 5,6 C 2,2 C 84 % 1027,7 hPa 0,0 l/m 0 min 0 min 0 W/m 6,4 km/h (2 Bft) 95,74 %
18.05.2023 05:24 6,4 C 5,6 C 2,2 C 84 % 1027,7 hPa 0,0 l/m 0 min 0 min 0 W/m 16,1 km/h (3 Bft) 93,62 %
18.05.2023 05:26 6,4 C 5,6 C 2,2 C 84 % 1027,7 hPa 0,0 l/m 0 min 0 min 0 W/m 6,4 km/h (2 Bft) 95,74 %
18.05.2023 05:28 6,4 C 5,6 C 2,2 C 84 % 1027,7 hPa 0,0 l/m 0 min 0 min 0 W/m 6,4 km/h (2 Bft) 95,74 %
18.05.2023 05:30 6,4 C 5,6 C 2,2 C 84 % 1027,6 hPa 0,0 l/m 0 min 0 min 0 W/m 6,4 km/h (2 Bft) 95,74 %
18.05.2023 05:32 6,4 C 5,6 C 2,2 C 85 % 1027,7 hPa 0,0 l/m 0 min 0 min 0 W/m 3,2 km/h (1 Bft) 95,65 %
18.05.2023 05:34 6,3 C 5,6 C 2,2 C 85 % 1027,7 hPa 0,0 l/m 0 min 0 min 0 W/m 6,4 km/h (2 Bft) 95,74 %
18.05.2023 05:36 6,3 C 5,6 C 2,2 C 85 % 1027,7 hPa 0,0 l/m 0 min 0 min 0 W/m 6,4 km/h (2 Bft) 95,74 %
18.05.2023 05:38 6,3 C 5,6 C 2,2 C 85 % 1027,6 hPa 0,0 l/m 0 min 0 min 1 W/m 6,4 km/h (2 Bft) 95,74 %
18.05.2023 05:40 6,3 C 5,6 C 2,2 C 85 % 1027,7 hPa 0,0 l/m 0 min 0 min 5 W/m 9,7 km/h (2 Bft) 93,62 %
18.05.2023 05:42 6,3 C 5,6 C 2,2 C 85 % 1027,6 hPa 0,0 l/m 0 min 0 min 5 W/m 3,2 km/h (1 Bft) 95,74 %
18.05.2023 05:44 6,3 C 5,6 C 2,2 C 85 % 1027,7 hPa 0,0 l/m 0 min 0 min 6 W/m 6,4 km/h (2 Bft) 95,74 %
18.05.2023 05:46 6,3 C 5,6 C 2,2 C 85 % 1027,6 hPa 0,0 l/m 0 min 0 min 7 W/m 3,2 km/h (1 Bft) 95,65 %
18.05.2023 05:48 6,3 C 5,6 C 2,2 C 85 % 1027,7 hPa 0,0 l/m 0 min 0 min 8 W/m 6,4 km/h (2 Bft) 95,74 %
18.05.2023 05:50 6,3 C 5,6 C 2,2 C 85 % 1027,7 hPa 0,0 l/m 0 min 0 min 9 W/m 9,7 km/h (2 Bft) 95,74 %
18.05.2023 05:52 6,3 C 5,6 C 2,2 C 85 % 1027,7 hPa 0,0 l/m 0 min 0 min 10 W/m 6,4 km/h (2 Bft) 95,74 %
18.05.2023 05:54 6,3 C 5,6 C 2,2 C 85 % 1027,7 hPa 0,0 l/m 0 min 0 min 11 W/m 6,4 km/h (2 Bft) 95,74 %
18.05.2023 05:56 6,2 C 5,6 C 2,2 C 85 % 1027,7 hPa 0,0 l/m 0 min 0 min 12 W/m 3,2 km/h (1 Bft) 95,74 %
18.05.2023 05:58 6,2 C 5,6 C 2,2 C 86 % 1027,7 hPa 0,0 l/m 0 min 0 min 14 W/m 3,2 km/h (1 Bft) 91,49 %
18.05.2023 06:00 6,2 C 5,6 C 2,2 C 86 % 1027,6 hPa 0,0 l/m 0 min 0 min 16 W/m 12,9 km/h (3 Bft) 95,65 %
18.05.2023 06:02 6,2 C 5,6 C 2,2 C 86 % 1027,6 hPa 0,0 l/m 0 min 0 min 18 W/m 6,4 km/h (2 Bft) 93,62 %
18.05.2023 06:04 6,2 C 5,6 C 2,2 C 86 % 1027,7 hPa 0,0 l/m 0 min 0 min 19 W/m 6,4 km/h (2 Bft) 95,74 %
18.05.2023 06:07 6,2 C 5,6 C 2,2 C 86 % 1027,7 hPa 0,0 l/m 0 min 0 min 23 W/m 3,2 km/h (1 Bft) 95,74 %
18.05.2023 06:08 6,2 C 5,6 C 2,2 C 86 % 1027,7 hPa 0,0 l/m 0 min 0 min 21 W/m 3,2 km/h (1 Bft) 95,88 %
18.05.2023 06:10 6,2 C 5,6 C 2,2 C 86 % 1027,7 hPa 0,0 l/m 0 min 0 min 24 W/m 6,4 km/h (2 Bft) 97,87 %
18.05.2023 06:12 6,2 C 5,6 C 2,2 C 86 % 1027,8 hPa 0,0 l/m 0 min 0 min 26 W/m 6,4 km/h (2 Bft) 97,83 %
18.05.2023 06:14 6,2 C 5,6 C 2,2 C 86 % 1027,8 hPa 0,0 l/m 0 min 0 min 28 W/m 3,2 km/h (1 Bft) 95,74 %
18.05.2023 06:16 6,2 C 5,6 C 2,2 C 86 % 1027,8 hPa 0,0 l/m 0 min 0 min 29 W/m 12,9 km/h (3 Bft) 97,87 %
18.05.2023 06:18 6,2 C 5,6 C 2,2 C 86 % 1027,8 hPa 0,0 l/m 0 min 0 min 32 W/m 9,7 km/h (2 Bft) 97,87 %
18.05.2023 06:20 6,2 C 5,6 C 2,2 C 86 % 1027,8 hPa 0,0 l/m 0 min 0 min 33 W/m 3,2 km/h (1 Bft) 100,00 %
18.05.2023 06:22 6,2 C 5,6 C 2,2 C 86 % 1027,8 hPa 0,0 l/m 0 min 0 min 34 W/m 6,4 km/h (2 Bft) 100,00 %
18.05.2023 06:24 6,2 C 5,6 C 2,2 C 86 % 1027,8 hPa 0,0 l/m 0 min 0 min 37 W/m 6,4 km/h (2 Bft) 97,83 %
18.05.2023 06:26 6,2 C 5,6 C 2,2 C 86 % 1027,8 hPa 0,0 l/m 0 min 0 min 39 W/m 3,2 km/h (1 Bft) 100,00 %
18.05.2023 06:28 6,2 C 5,6 C 2,2 C 86 % 1027,8 hPa 0,0 l/m 0 min 0 min 40 W/m 3,2 km/h (1 Bft) 97,87 %
18.05.2023 06:30 6,2 C 6,1 C 2,2 C 86 % 1027,9 hPa 0,0 l/m 0 min 0 min 42 W/m 3,2 km/h (1 Bft) 100,00 %
18.05.2023 06:32 6,2 C 6,1 C 2,2 C 86 % 1027,9 hPa 0,0 l/m 0 min 0 min 43 W/m 6,4 km/h (2 Bft) 100,00 %
18.05.2023 06:34 6,2 C 6,1 C 2,2 C 86 % 1027,9 hPa 0,0 l/m 0 min 0 min 45 W/m 3,2 km/h (1 Bft) 100,00 %
18.05.2023 06:36 6,3 C 6,1 C 2,2 C 87 % 1028,0 hPa 0,0 l/m 0 min 0 min 46 W/m 6,4 km/h (2 Bft) 100,00 %
18.05.2023 06:38 6,3 C 6,1 C 2,2 C 87 % 1028,0 hPa 0,0 l/m 0 min 0 min 47 W/m 3,2 km/h (1 Bft) 97,83 %
18.05.2023 06:40 6,3 C 6,1 C 2,2 C 87 % 1028,0 hPa 0,0 l/m 0 min 0 min 48 W/m 3,2 km/h (1 Bft) 97,87 %
18.05.2023 06:42 6,3 C 6,1 C 2,2 C 87 % 1028,0 hPa 0,0 l/m 0 min 0 min 49 W/m 6,4 km/h (2 Bft) 97,87 %
18.05.2023 06:44 6,3 C 6,1 C 2,8 C 87 % 1028,0 hPa 0,0 l/m 0 min 0 min 49 W/m 3,2 km/h (1 Bft) 97,87 %
18.05.2023 06:46 6,3 C 6,1 C 2,8 C 87 % 1028,1 hPa 0,0 l/m 0 min 0 min 51 W/m 6,4 km/h (2 Bft) 95,74 %
18.05.2023 06:48 6,4 C 6,1 C 2,8 C 87 % 1028,1 hPa 0,0 l/m 0 min 0 min 51 W/m 6,4 km/h (2 Bft) 97,87 %
18.05.2023 06:50 6,4 C 6,1 C 2,8 C 87 % 1028,0 hPa 0,0 l/m 0 min 0 min 51 W/m 6,4 km/h (2 Bft) 97,83 %
18.05.2023 06:52 6,4 C 6,1 C 2,8 C 87 % 1028,1 hPa 0,0 l/m 0 min 0 min 53 W/m 6,4 km/h (2 Bft) 97,87 %
18.05.2023 06:54 6,4 C 6,1 C 2,8 C 87 % 1028,1 hPa 0,0 l/m 0 min 0 min 53 W/m 6,4 km/h (2 Bft) 97,87 %
18.05.2023 06:56 6,5 C 6,1 C 2,8 C 87 % 1028,1 hPa 0,0 l/m 0 min 0 min 53 W/m 6,4 km/h (2 Bft) 97,87 %
18.05.2023 06:58 6,5 C 6,7 C 2,8 C 87 % 1028,1 hPa 0,0 l/m 0 min 0 min 53 W/m 3,2 km/h (1 Bft) 97,87 %
18.05.2023 07:00 6,5 C 6,7 C 2,8 C 87 % 1028,1 hPa 0,0 l/m 0 min 0 min 54 W/m 6,4 km/h (2 Bft) 97,87 %
18.05.2023 07:02 6,5 C 6,1 C 2,8 C 87 % 1028,1 hPa 0,0 l/m 0 min 0 min 54 W/m 16,1 km/h (3 Bft) 97,87 %
18.05.2023 07:04 6,6 C 6,7 C 2,8 C 87 % 1028,2 hPa 0,0 l/m 0 min 0 min 54 W/m 6,4 km/h (2 Bft) 97,83 %
18.05.2023 07:06 6,6 C 6,7 C 2,8 C 87 % 1028,1 hPa 0,0 l/m 0 min 0 min 54 W/m 3,2 km/h (1 Bft) 98,31 %
18.05.2023 07:08 6,6 C 6,7 C 2,8 C 87 % 1028,1 hPa 0,0 l/m 0 min 0 min 55 W/m 6,4 km/h (2 Bft) 100,00 %
18.05.2023 07:10 6,6 C 6,7 C 2,8 C 87 % 1028,1 hPa 0,0 l/m 0 min 0 min 56 W/m 9,7 km/h (2 Bft) 97,87 %
18.05.2023 07:12 6,7 C 6,7 C 2,8 C 87 % 1028,1 hPa 0,0 l/m 0 min 0 min 56 W/m 9,7 km/h (2 Bft) 97,87 %
18.05.2023 07:14 6,7 C 6,7 C 2,8 C 87 % 1028,1 hPa 0,0 l/m 0 min 0 min 56 W/m 3,2 km/h (1 Bft) 100,00 %
18.05.2023 07:16 6,7 C 6,7 C 2,8 C 87 % 1028,1 hPa 0,0 l/m 0 min 0 min 57 W/m 6,4 km/h (2 Bft) 97,83 %
18.05.2023 07:18 6,8 C 6,7 C 2,8 C 86 % 1028,1 hPa 0,0 l/m 0 min 0 min 58 W/m 9,7 km/h (2 Bft) 100,00 %
18.05.2023 07:20 6,8 C 6,7 C 2,8 C 86 % 1028,1 hPa 0,0 l/m 0 min 0 min 58 W/m 9,7 km/h (2 Bft) 100,00 %
18.05.2023 07:22 6,8 C 6,7 C 3,3 C 86 % 1028,2 hPa 0,0 l/m 0 min 0 min 60 W/m 6,4 km/h (2 Bft) 100,00 %
18.05.2023 07:24 6,8 C 6,7 C 3,3 C 86 % 1028,1 hPa 0,0 l/m 0 min 0 min 60 W/m 12,9 km/h (3 Bft) 97,87 %
18.05.2023 07:26 6,8 C 6,7 C 3,3 C 86 % 1028,1 hPa 0,0 l/m 0 min 0 min 61 W/m 9,7 km/h (2 Bft) 100,00 %
18.05.2023 07:28 6,9 C 6,7 C 3,3 C 86 % 1028,1 hPa 0,0 l/m 0 min 0 min 62 W/m 6,4 km/h (2 Bft) 97,87 %
18.05.2023 07:30 6,9 C 7,2 C 3,3 C 86 % 1028,1 hPa 0,0 l/m 0 min 0 min 62 W/m 6,4 km/h (2 Bft) 100,00 %
18.05.2023 07:32 7,0 C 7,2 C 3,3 C 86 % 1028,1 hPa 0,0 l/m 0 min 0 min 62 W/m 6,4 km/h (2 Bft) 100,00 %
18.05.2023 07:34 7,1 C 7,2 C 3,3 C 86 % 1028,1 hPa 0,0 l/m 0 min 0 min 62 W/m 12,9 km/h (3 Bft) 100,00 %
18.05.2023 07:36 7,1 C 7,2 C 3,3 C 86 % 1028,1 hPa 0,0 l/m 0 min 0 min 63 W/m 9,7 km/h (2 Bft) 55,32 %
18.05.2023 07:38 7,1 C 7,2 C 3,3 C 85 % 1028,1 hPa 0,0 l/m 0 min 0 min 63 W/m 6,4 km/h (2 Bft) 100,00 %
18.05.2023 07:40 7,1 C 7,2 C 3,3 C 85 % 1028,1 hPa 0,0 l/m 0 min 0 min 63 W/m 9,7 km/h (2 Bft) 97,87 %
18.05.2023 07:42 7,2 C 7,2 C 3,3 C 85 % 1028,1 hPa 0,0 l/m 0 min 0 min 63 W/m 6,4 km/h (2 Bft) 97,83 %
18.05.2023 07:44 7,2 C 7,2 C 3,3 C 85 % 1028,1 hPa 0,0 l/m 0 min 0 min 65 W/m 12,9 km/h (3 Bft) 100,00 %
18.05.2023 07:46 7,2 C 7,2 C 3,3 C 85 % 1028,1 hPa 0,0 l/m 0 min 0 min 66 W/m 12,9 km/h (3 Bft) 95,74 %
18.05.2023 07:48 7,3 C 7,2 C 3,3 C 85 % 1028,1 hPa 0,0 l/m 0 min 0 min 67 W/m 12,9 km/h (3 Bft) 100,00 %
18.05.2023 07:50 7,3 C 7,2 C 3,3 C 85 % 1028,2 hPa 0,0 l/m 0 min 0 min 69 W/m 16,1 km/h (3 Bft) 97,87 %
18.05.2023 07:52 7,4 C 7,2 C 3,9 C 84 % 1028,2 hPa 0,0 l/m 0 min 0 min 76 W/m 9,7 km/h (2 Bft) 95,74 %
18.05.2023 07:54 7,4 C 7,8 C 3,9 C 84 % 1028,2 hPa 0,0 l/m 2 min 0 min 167 W/m 6,4 km/h (2 Bft) 95,65 %
18.05.2023 07:56 7,5 C 7,8 C 3,9 C 84 % 1028,2 hPa 0,0 l/m 2 min 0 min 237 W/m 6,4 km/h (2 Bft) 97,87 %
18.05.2023 07:58 7,6 C 7,8 C 3,9 C 84 % 1028,2 hPa 0,0 l/m 2 min 0 min 266 W/m 9,7 km/h (2 Bft) 97,87 %
18.05.2023 08:00 7,6 C 7,8 C 3,9 C 84 % 1028,1 hPa 0,0 l/m 2 min 0 min 277 W/m 9,7 km/h (2 Bft) 97,87 %
18.05.2023 08:02 7,6 C 7,8 C 3,9 C 84 % 1028,1 hPa 0,0 l/m 2 min 0 min 283 W/m 9,7 km/h (2 Bft) 93,62 %
18.05.2023 08:04 7,7 C 7,8 C 3,9 C 83 % 1028,1 hPa 0,0 l/m 2 min 0 min 287 W/m 9,7 km/h (2 Bft) 97,87 %
18.05.2023 08:06 7,8 C 8,3 C 3,9 C 84 % 1028,2 hPa 0,0 l/m 2 min 0 min 282 W/m 9,7 km/h (2 Bft) 97,96 %
18.05.2023 08:08 7,8 C 8,3 C 4,4 C 84 % 1028,1 hPa 0,0 l/m 2 min 0 min 198 W/m 9,7 km/h (2 Bft) 97,87 %
18.05.2023 08:10 7,9 C 8,9 C 4,4 C 84 % 1028,1 hPa 0,0 l/m 2 min 0 min 244 W/m 9,7 km/h (2 Bft) 97,87 %
18.05.2023 08:12 8,1 C 8,9 C 4,4 C 83 % 1028,1 hPa 0,0 l/m 2 min 0 min 307 W/m 9,7 km/h (2 Bft) 97,87 %
18.05.2023 08:14 8,2 C 10,0 C 4,4 C 83 % 1028,1 hPa 0,0 l/m 2 min 0 min 318 W/m 16,1 km/h (3 Bft) 97,83 %
18.05.2023 08:16 8,3 C 11,1 C 4,4 C 83 % 1028,2 hPa 0,0 l/m 2 min 0 min 324 W/m 12,9 km/h (3 Bft) 97,87 %
18.05.2023 08:18 8,4 C 12,2 C 4,4 C 83 % 1028,2 hPa 0,0 l/m 2 min 0 min 330 W/m 6,4 km/h (2 Bft) 97,87 %
18.05.2023 08:20 8,6 C 13,3 C 4,4 C 82 % 1028,3 hPa 0,0 l/m 2 min 0 min 337 W/m 12,9 km/h (3 Bft) 97,87 %
18.05.2023 08:22 8,7 C 13,3 C 4,4 C 82 % 1028,3 hPa 0,0 l/m 2 min 0 min 343 W/m 9,7 km/h (2 Bft) 93,62 %
18.05.2023 08:24 8,8 C 14,4 C 5,0 C 81 % 1028,2 hPa 0,0 l/m 2 min 0 min 348 W/m 12,9 km/h (3 Bft) 95,74 %
18.05.2023 08:26 8,9 C 14,4 C 5,0 C 81 % 1028,2 hPa 0,0 l/m 2 min 0 min 354 W/m 12,9 km/h (3 Bft) 95,74 %
18.05.2023 08:28 9,1 C 14,4 C 5,0 C 80 % 1028,2 hPa 0,0 l/m 2 min 0 min 360 W/m 9,7 km/h (2 Bft) 91,30 %
18.05.2023 08:30 9,2 C 14,4 C 5,0 C 80 % 1028,3 hPa 0,0 l/m 2 min 0 min 359 W/m 16,1 km/h (3 Bft) 95,74 %
18.05.2023 08:32 9,3 C 15,0 C 5,0 C 79 % 1028,3 hPa 0,0 l/m 2 min 0 min 374 W/m 9,7 km/h (2 Bft) 93,62 %
18.05.2023 08:34 9,5 C 15,6 C 5,0 C 79 % 1028,3 hPa 0,0 l/m 2 min 0 min 380 W/m 12,9 km/h (3 Bft) 95,74 %
18.05.2023 08:36 9,6 C 15,6 C 5,0 C 78 % 1028,3 hPa 0,0 l/m 2 min 0 min 387 W/m 12,9 km/h (3 Bft) 93,62 %
18.05.2023 08:38 9,7 C 16,1 C 5,6 C 78 % 1028,3 hPa 0,0 l/m 2 min 0 min 393 W/m 9,7 km/h (2 Bft) 93,62 %
18.05.2023 08:40 9,8 C 15,6 C 5,6 C 77 % 1028,2 hPa 0,0 l/m 2 min 0 min 397 W/m 9,7 km/h (2 Bft) 93,48 %
18.05.2023 08:42 10,0 C 16,1 C 6,1 C 77 % 1028,3 hPa 0,0 l/m 2 min 0 min 402 W/m 6,4 km/h (2 Bft) 93,62 %
18.05.2023 08:44 10,2 C 16,7 C 6,7 C 77 % 1028,3 hPa 0,0 l/m 2 min 0 min 411 W/m 6,4 km/h (2 Bft) 93,62 %
18.05.2023 08:46 10,3 C 17,2 C 6,7 C 76 % 1028,3 hPa 0,0 l/m 2 min 0 min 419 W/m 9,7 km/h (2 Bft) 93,62 %
18.05.2023 08:48 10,5 C 17,2 C 6,7 C 76 % 1028,4 hPa 0,0 l/m 2 min 0 min 425 W/m 3,2 km/h (1 Bft) 91,49 %
18.05.2023 08:50 10,7 C 17,2 C 6,7 C 76 % 1028,3 hPa 0,0 l/m 2 min 0 min 431 W/m 9,7 km/h (2 Bft) 93,62 %
18.05.2023 08:52 10,8 C 17,8 C 6,7 C 75 % 1028,3 hPa 0,0 l/m 2 min 0 min 435 W/m 12,9 km/h (3 Bft) 93,48 %
18.05.2023 08:54 11,0 C 17,8 C 7,2 C 74 % 1028,3 hPa 0,0 l/m 2 min 0 min 442 W/m 12,9 km/h (3 Bft) 91,84 %
18.05.2023 08:56 11,1 C 17,8 C 7,8 C 73 % 1028,3 hPa 0,0 l/m 2 min 0 min 448 W/m 6,4 km/h (2 Bft) 93,62 %
18.05.2023 08:58 11,3 C 17,8 C 7,8 C 74 % 1028,4 hPa 0,0 l/m 2 min 0 min 453 W/m 9,7 km/h (2 Bft) 91,30 %
18.05.2023 09:00 11,4 C 17,2 C 8,3 C 72 % 1028,4 hPa 0,0 l/m 2 min 0 min 457 W/m 9,7 km/h (2 Bft) 93,62 %
18.05.2023 09:02 11,6 C 17,8 C 8,3 C 72 % 1028,4 hPa 0,0 l/m 2 min 0 min 453 W/m 9,7 km/h (2 Bft) 93,62 %
18.05.2023 09:04 11,7 C 17,8 C 8,3 C 71 % 1028,3 hPa 0,0 l/m 2 min 0 min 459 W/m 6,4 km/h (2 Bft) 95,74 %
18.05.2023 09:06 11,8 C 17,8 C 8,9 C 71 % 1028,3 hPa 0,0 l/m 2 min 0 min 464 W/m 12,9 km/h (3 Bft) 93,75 %
18.05.2023 09:08 11,9 C 18,3 C 8,9 C 71 % 1028,3 hPa 0,0 l/m 2 min 0 min 477 W/m 6,4 km/h (2 Bft) 93,62 %
18.05.2023 09:10 12,1 C 18,9 C 8,9 C 71 % 1028,3 hPa 0,0 l/m 2 min 0 min 483 W/m 12,9 km/h (3 Bft) 97,87 %
18.05.2023 09:12 12,1 C 18,9 C 8,9 C 70 % 1028,3 hPa 0,0 l/m 2 min 0 min 490 W/m 9,7 km/h (2 Bft) 95,65 %
18.05.2023 09:14 12,3 C 18,9 C 9,4 C 70 % 1028,3 hPa 0,0 l/m 2 min 0 min 496 W/m 6,4 km/h (2 Bft) 93,62 %
18.05.2023 09:16 12,4 C 18,9 C 9,4 C 70 % 1028,3 hPa 0,0 l/m 2 min 0 min 501 W/m 9,7 km/h (2 Bft) 95,74 %
18.05.2023 09:18 12,6 C 18,9 C 9,4 C 69 % 1028,3 hPa 0,0 l/m 2 min 0 min 508 W/m 6,4 km/h (2 Bft) 95,74 %
18.05.2023 09:20 12,8 C 18,9 C 10,0 C 69 % 1028,3 hPa 0,0 l/m 2 min 0 min 513 W/m 6,4 km/h (2 Bft) 97,87 %
18.05.2023 09:22 12,9 C 18,9 C 10,0 C 69 % 1028,4 hPa 0,0 l/m 2 min 0 min 519 W/m 6,4 km/h (2 Bft) 97,30 %
18.05.2023 09:24 13,1 C 18,3 C 10,0 C 68 % 1028,4 hPa 0,0 l/m 2 min 0 min 526 W/m 6,4 km/h (2 Bft) 97,87 %
18.05.2023 09:26 13,1 C 18,3 C 10,0 C 67 % 1028,4 hPa 0,0 l/m 2 min 0 min 507 W/m 9,7 km/h (2 Bft) 97,87 %
18.05.2023 09:28 13,1 C 18,9 C 10,0 C 67 % 1028,4 hPa 0,0 l/m 2 min 0 min 531 W/m 12,9 km/h (3 Bft) 96,23 %
18.05.2023 09:30 13,1 C 18,3 C 10,6 C 67 % 1028,4 hPa 0,0 l/m 2 min 0 min 540 W/m 6,4 km/h (2 Bft) 97,87 %
18.05.2023 09:32 13,1 C 18,9 C 10,6 C 68 % 1028,4 hPa 0,0 l/m 2 min 0 min 546 W/m 9,7 km/h (2 Bft) 97,87 %
18.05.2023 09:34 13,1 C 18,9 C 10,6 C 67 % 1028,4 hPa 0,0 l/m 2 min 0 min 551 W/m 9,7 km/h (2 Bft) 97,87 %
18.05.2023 09:36 13,1 C 18,9 C 10,6 C 67 % 1028,4 hPa 0,0 l/m 2 min 0 min 556 W/m 12,9 km/h (3 Bft) 97,87 %
18.05.2023 09:38 13,2 C 18,9 C 10,6 C 67 % 1028,4 hPa 0,0 l/m 2 min 0 min 561 W/m 9,7 km/h (2 Bft) 97,83 %
18.05.2023 09:40 13,2 C 18,9 C 10,6 C 66 % 1028,4 hPa 0,0 l/m 2 min 0 min 568 W/m 9,7 km/h (2 Bft) 97,87 %
18.05.2023 09:42 13,3 C 18,9 C 11,1 C 67 % 1028,3 hPa 0,0 l/m 2 min 0 min 574 W/m 9,7 km/h (2 Bft) 97,87 %
18.05.2023 09:44 13,3 C 18,9 C 11,1 C 67 % 1028,3 hPa 0,0 l/m 2 min 0 min 579 W/m 9,7 km/h (2 Bft) 97,87 %
18.05.2023 09:46 13,4 C 18,9 C 11,1 C 66 % 1028,3 hPa 0,0 l/m 2 min 0 min 587 W/m 12,9 km/h (3 Bft) 97,87 %
18.05.2023 09:48 13,6 C 19,4 C 11,1 C 66 % 1028,4 hPa 0,0 l/m 2 min 0 min 590 W/m 6,4 km/h (2 Bft) 95,74 %
18.05.2023 09:50 13,6 C 19,4 C 11,1 C 66 % 1028,4 hPa 0,0 l/m 2 min 0 min 597 W/m 9,7 km/h (2 Bft) 97,83 %
18.05.2023 09:52 13,6 C 19,4 C 11,1 C 65 % 1028,4 hPa 0,0 l/m 2 min 0 min 603 W/m 9,7 km/h (2 Bft) 97,87 %
18.05.2023 09:54 13,7 C 19,4 C 11,7 C 65 % 1028,4 hPa 0,0 l/m 2 min 0 min 607 W/m 9,7 km/h (2 Bft) 97,87 %
18.05.2023 09:56 13,7 C 19,4 C 11,7 C 65 % 1028,4 hPa 0,0 l/m 2 min 0 min 612 W/m 9,7 km/h (2 Bft) 93,62 %
18.05.2023 09:58 13,8 C 19,4 C 11,7 C 65 % 1028,4 hPa 0,0 l/m 2 min 0 min 618 W/m 12,9 km/h (3 Bft) 97,87 %
18.05.2023 10:00 13,8 C 19,4 C 11,7 C 65 % 1028,4 hPa 0,0 l/m 2 min 0 min 624 W/m 12,9 km/h (3 Bft) 97,87 %
18.05.2023 10:02 13,9 C 18,9 C 11,7 C 64 % 1028,4 hPa 0,0 l/m 2 min 0 min 629 W/m 12,9 km/h (3 Bft) 97,87 %
18.05.2023 10:04 13,9 C 18,9 C 11,7 C 65 % 1028,4 hPa 0,0 l/m 2 min 0 min 634 W/m 12,9 km/h (3 Bft) 97,62 %
18.05.2023 10:06 13,9 C 18,9 C 11,7 C 65 % 1028,3 hPa 0,0 l/m 2 min 0 min 640 W/m 12,9 km/h (3 Bft) 97,87 %
18.05.2023 10:08 13,9 C 18,9 C 11,1 C 65 % 1028,3 hPa 0,0 l/m 2 min 0 min 647 W/m 9,7 km/h (2 Bft) 97,87 %
18.05.2023 10:10 14,0 C 18,9 C 11,1 C 63 % 1028,3 hPa 0,0 l/m 2 min 0 min 654 W/m 12,9 km/h (3 Bft) 97,83 %
18.05.2023 10:12 14,0 C 18,9 C 11,1 C 63 % 1028,3 hPa 0,0 l/m 2 min 0 min 660 W/m 9,7 km/h (2 Bft) 97,87 %
18.05.2023 10:14 14,0 C 17,8 C 11,7 C 62 % 1028,2 hPa 0,0 l/m 2 min 0 min 667 W/m 12,9 km/h (3 Bft) 97,87 %
18.05.2023 10:16 13,9 C 17,2 C 11,7 C 62 % 1028,2 hPa 0,0 l/m 2 min 0 min 669 W/m 12,9 km/h (3 Bft) 97,87 %
18.05.2023 10:18 14,0 C 17,2 C 11,7 C 64 % 1028,2 hPa 0,0 l/m 2 min 0 min 682 W/m 16,1 km/h (3 Bft) 97,87 %
18.05.2023 10:20 13,9 C 16,1 C 12,2 C 62 % 1028,2 hPa 0,0 l/m 2 min 0 min 687 W/m 12,9 km/h (3 Bft) 95,74 %
18.05.2023 10:22 14,0 C 16,7 C 12,2 C 63 % 1028,1 hPa 0,0 l/m 2 min 0 min 693 W/m 6,4 km/h (2 Bft) 97,87 %
18.05.2023 10:24 14,0 C 16,7 C 12,2 C 62 % 1028,2 hPa 0,0 l/m 2 min 0 min 700 W/m 12,9 km/h (3 Bft) 97,83 %
18.05.2023 10:26 13,9 C 16,1 C 12,8 C 61 % 1028,1 hPa 0,0 l/m 2 min 0 min 705 W/m 12,9 km/h (3 Bft) 97,87 %
18.05.2023 10:28 13,9 C 16,1 C 11,7 C 62 % 1028,2 hPa 0,0 l/m 2 min 0 min 708 W/m 12,9 km/h (3 Bft) 97,87 %
18.05.2023 10:30 14,0 C 16,1 C 11,7 C 62 % 1028,2 hPa 0,0 l/m 2 min 0 min 710 W/m 9,7 km/h (2 Bft) 91,49 %
18.05.2023 10:32 14,1 C 16,1 C 11,1 C 62 % 1028,2 hPa 0,0 l/m 2 min 0 min 713 W/m 12,9 km/h (3 Bft) 93,62 %
18.05.2023 10:34 14,0 C 15,6 C 10,6 C 61 % 1028,2 hPa 0,0 l/m 2 min 0 min 713 W/m 12,9 km/h (3 Bft) 95,74 %
18.05.2023 10:36 13,9 C 15,6 C 10,6 C 61 % 1028,2 hPa 0,0 l/m 2 min 0 min 722 W/m 9,7 km/h (2 Bft) 95,65 %
18.05.2023 10:38 14,0 C 15,6 C 10,6 C 62 % 1028,1 hPa 0,0 l/m 2 min 0 min 729 W/m 12,9 km/h (3 Bft) 95,74 %
18.05.2023 10:40 14,1 C 16,1 C 11,1 C 62 % 1028,1 hPa 0,0 l/m 2 min 0 min 726 W/m 9,7 km/h (2 Bft) 95,74 %
18.05.2023 10:42 14,0 C 16,1 C 11,1 C 61 % 1028,2 hPa 0,0 l/m 2 min 0 min 734 W/m 12,9 km/h (3 Bft) 95,74 %
18.05.2023 10:44 13,9 C 16,1 C 11,1 C 61 % 1028,1 hPa 0,0 l/m 2 min 0 min 739 W/m 12,9 km/h (3 Bft) 95,74 %
18.05.2023 10:46 13,9 C 15,6 C 11,1 C 61 % 1028,1 hPa 0,0 l/m 2 min 0 min 746 W/m 16,1 km/h (3 Bft) 97,87 %
18.05.2023 10:48 13,9 C 15,6 C 11,1 C 61 % 1028,1 hPa 0,0 l/m 2 min 0 min 752 W/m 12,9 km/h (3 Bft) 95,74 %
18.05.2023 10:50 14,1 C 16,1 C 11,1 C 62 % 1028,2 hPa 0,0 l/m 2 min 0 min 758 W/m 12,9 km/h (3 Bft) 95,65 %
18.05.2023 10:52 14,2 C 16,7 C 11,1 C 63 % 1028,1 hPa 0,0 l/m 2 min 0 min 762 W/m 9,7 km/h (2 Bft) 95,74 %
18.05.2023 10:54 14,3 C 16,7 C 11,1 C 63 % 1028,2 hPa 0,0 l/m 2 min 0 min 764 W/m 6,4 km/h (2 Bft) 95,74 %
18.05.2023 10:56 14,3 C 16,7 C 11,1 C 61 % 1028,1 hPa 0,0 l/m 2 min 0 min 776 W/m 16,1 km/h (3 Bft) 97,87 %
18.05.2023 10:58 14,4 C 17,2 C 11,1 C 61 % 1028,1 hPa 0,0 l/m 2 min 0 min 792 W/m 12,9 km/h (3 Bft) 95,74 %
18.05.2023 11:00 14,4 C 17,8 C 11,1 C 60 % 1028,1 hPa 0,0 l/m 2 min 0 min 794 W/m 9,7 km/h (2 Bft) 91,49 %
18.05.2023 11:02 14,6 C 17,8 C 11,1 C 60 % 1028,1 hPa 0,0 l/m 2 min 0 min 796 W/m 16,1 km/h (3 Bft) 95,74 %
18.05.2023 11:04 14,6 C 17,8 C 10,6 C 60 % 1028,1 hPa 0,0 l/m 2 min 0 min 784 W/m 16,1 km/h (3 Bft) 97,92 %
18.05.2023 11:06 14,6 C 18,3 C 11,1 C 60 % 1028,1 hPa 0,0 l/m 2 min 0 min 810 W/m 9,7 km/h (2 Bft) 95,74 %
18.05.2023 11:08 14,7 C 18,9 C 11,1 C 60 % 1028,1 hPa 0,0 l/m 2 min 0 min 812 W/m 9,7 km/h (2 Bft) 95,74 %
18.05.2023 11:10 14,7 C 18,9 C 10,6 C 60 % 1028,1 hPa 0,0 l/m 2 min 0 min 809 W/m 12,9 km/h (3 Bft) 97,87 %
18.05.2023 11:12 14,8 C 18,9 C 10,6 C 60 % 1028,1 hPa 0,0 l/m 2 min 0 min 817 W/m 9,7 km/h (2 Bft) 100,00 %
18.05.2023 11:14 14,8 C 18,3 C 10,6 C 60 % 1028,1 hPa 0,0 l/m 2 min 0 min 818 W/m 12,9 km/h (3 Bft) 97,87 %
18.05.2023 11:16 14,8 C 18,3 C 10,6 C 59 % 1028,0 hPa 0,0 l/m 2 min 0 min 822 W/m 9,7 km/h (2 Bft) 97,83 %
18.05.2023 11:18 14,9 C 18,3 C 11,1 C 59 % 1028,0 hPa 0,0 l/m 2 min 0 min 841 W/m 6,4 km/h (2 Bft) 97,87 %
18.05.2023 11:20 15,1 C 18,3 C 11,1 C 59 % 1028,0 hPa 0,0 l/m 2 min 0 min 851 W/m 9,7 km/h (2 Bft) 97,87 %
18.05.2023 11:22 15,2 C 18,3 C 11,1 C 59 % 1028,0 hPa 0,0 l/m 2 min 0 min 805 W/m 9,7 km/h (2 Bft) 97,87 %
18.05.2023 11:24 15,2 C 18,9 C 11,1 C 59 % 1028,0 hPa 0,0 l/m 2 min 0 min 811 W/m 9,7 km/h (2 Bft) 97,87 %
18.05.2023 11:26 15,2 C 18,9 C 11,1 C 59 % 1027,9 hPa 0,0 l/m 2 min 0 min 867 W/m 16,1 km/h (3 Bft) 95,74 %
18.05.2023 11:28 15,2 C 18,3 C 11,1 C 58 % 1028,0 hPa 0,0 l/m 2 min 0 min 907 W/m 9,7 km/h (2 Bft) 97,83 %
18.05.2023 11:30 15,1 C 17,2 C 11,1 C 58 % 1028,0 hPa 0,0 l/m 2 min 0 min 550 W/m 9,7 km/h (2 Bft) 97,87 %
18.05.2023 11:32 15,0 C 16,1 C 10,6 C 59 % 1028,0 hPa 0,0 l/m 0 min 0 min 224 W/m 22,5 km/h (4 Bft) 97,87 %
18.05.2023 11:34 14,8 C 17,8 C 10,6 C 59 % 1028,0 hPa 0,0 l/m 0 min 0 min 230 W/m 9,7 km/h (2 Bft) 97,87 %
18.05.2023 11:36 14,8 C 18,9 C 11,1 C 60 % 1028,0 hPa 0,0 l/m 2 min 0 min 890 W/m 16,1 km/h (3 Bft) 97,87 %
18.05.2023 11:38 14,8 C 20,6 C 11,1 C 59 % 1028,0 hPa 0,0 l/m 2 min 0 min 884 W/m 9,7 km/h (2 Bft) 97,87 %
18.05.2023 11:40 14,8 C 20,0 C 11,7 C 58 % 1028,0 hPa 0,0 l/m 2 min 0 min 882 W/m 12,9 km/h (3 Bft) 97,83 %
18.05.2023 11:42 14,9 C 20,6 C 12,8 C 60 % 1028,0 hPa 0,0 l/m 2 min 0 min 883 W/m 9,7 km/h (2 Bft) 97,87 %
18.05.2023 11:44 15,1 C 21,1 C 12,8 C 59 % 1028,0 hPa 0,0 l/m 2 min 0 min 880 W/m 9,7 km/h (2 Bft) 100,00 %
18.05.2023 11:46 15,2 C 21,7 C 12,2 C 58 % 1028,0 hPa 0,0 l/m 2 min 0 min 877 W/m 9,7 km/h (2 Bft) 95,74 %
18.05.2023 11:48 15,3 C 22,2 C 12,2 C 58 % 1028,0 hPa 0,0 l/m 2 min 0 min 884 W/m 9,7 km/h (2 Bft) 100,00 %
18.05.2023 11:50 15,4 C 22,2 C 12,2 C 58 % 1028,0 hPa 0,0 l/m 2 min 0 min 882 W/m 9,7 km/h (2 Bft) 100,00 %
18.05.2023 11:52 15,6 C 22,8 C 12,2 C 58 % 1028,0 hPa 0,0 l/m 2 min 0 min 885 W/m 12,9 km/h (3 Bft) 100,00 %
18.05.2023 11:54 15,6 C 22,8 C 12,2 C 58 % 1028,0 hPa 0,0 l/m 2 min 0 min 890 W/m 12,9 km/h (3 Bft) 100,00 %
18.05.2023 11:56 15,7 C 23,3 C 12,2 C 58 % 1027,9 hPa 0,0 l/m 2 min 0 min 890 W/m 12,9 km/h (3 Bft) 95,74 %
18.05.2023 11:58 15,8 C 22,8 C 12,2 C 58 % 1028,0 hPa 0,0 l/m 2 min 0 min 889 W/m 12,9 km/h (3 Bft) 100,00 %
18.05.2023 12:00 15,9 C 23,3 C 12,8 C 58 % 1028,0 hPa 0,0 l/m 2 min 0 min 897 W/m 9,7 km/h (2 Bft) 97,87 %
18.05.2023 12:02 16,0 C 22,8 C 12,2 C 57 % 1028,0 hPa 0,0 l/m 2 min 0 min 912 W/m 9,7 km/h (2 Bft) 95,74 %
18.05.2023 12:04 16,1 C 23,3 C 12,8 C 56 % 1028,0 hPa 0,0 l/m 2 min 0 min 889 W/m 9,7 km/h (2 Bft) 100,00 %
18.05.2023 12:07 16,2 C 22,8 C 13,3 C 55 % 1027,9 hPa 0,0 l/m 3 min 0 min 863 W/m 6,4 km/h (2 Bft) 100,00 %
18.05.2023 12:08 16,2 C 22,8 C 13,9 C 55 % 1027,9 hPa 0,0 l/m 1 min 0 min 878 W/m 9,7 km/h (2 Bft) 100,00 %
18.05.2023 12:10 16,2 C 23,3 C 14,4 C 55 % 1028,0 hPa 0,0 l/m 2 min 0 min 902 W/m 9,7 km/h (2 Bft) 100,00 %
18.05.2023 12:12 16,3 C 22,8 C 15,6 C 56 % 1027,8 hPa 0,0 l/m 2 min 0 min 920 W/m 6,4 km/h (2 Bft) 100,00 %
18.05.2023 12:14 16,4 C 20,0 C 15,6 C 55 % 1027,9 hPa 0,0 l/m 2 min 0 min 928 W/m 12,9 km/h (3 Bft) 100,00 %
18.05.2023 12:16 16,3 C 19,4 C 14,4 C 55 % 1027,9 hPa 0,0 l/m 0 min 0 min 320 W/m 9,7 km/h (2 Bft) 100,00 %
18.05.2023 12:18 16,2 C 20,6 C 14,4 C 56 % 1027,9 hPa 0,0 l/m 2 min 0 min 444 W/m 16,1 km/h (3 Bft) 100,00 %
18.05.2023 12:20 16,2 C 20,6 C 15,6 C 55 % 1027,8 hPa 0,0 l/m 2 min 0 min 896 W/m 16,1 km/h (3 Bft) 100,00 %
18.05.2023 12:22 16,1 C 20,0 C 14,4 C 55 % 1027,8 hPa 0,0 l/m 2 min 0 min 905 W/m 9,7 km/h (2 Bft) 100,00 %
18.05.2023 12:24 16,0 C 21,1 C 15,0 C 57 % 1027,8 hPa 0,0 l/m 2 min 0 min 918 W/m 16,1 km/h (3 Bft) 97,87 %
18.05.2023 12:26 15,9 C 22,2 C 16,1 C 57 % 1027,8 hPa 0,0 l/m 2 min 0 min 915 W/m 12,9 km/h (3 Bft) 100,00 %
18.05.2023 12:28 15,9 C 22,2 C 16,7 C 56 % 1027,7 hPa 0,0 l/m 2 min 0 min 941 W/m 16,1 km/h (3 Bft) 100,00 %
18.05.2023 12:30 15,9 C 20,6 C 16,1 C 57 % 1027,7 hPa 0,0 l/m 2 min 0 min 784 W/m 12,9 km/h (3 Bft) 100,00 %
18.05.2023 12:32 15,9 C 21,7 C 16,1 C 56 % 1027,7 hPa 0,0 l/m 2 min 0 min 540 W/m 16,1 km/h (3 Bft) 97,83 %
18.05.2023 12:34 15,9 C 22,2 C 16,7 C 55 % 1027,6 hPa 0,0 l/m 2 min 0 min 908 W/m 9,7 km/h (2 Bft) 95,74 %
18.05.2023 12:36 16,0 C 22,8 C 17,2 C 55 % 1027,6 hPa 0,0 l/m 2 min 0 min 904 W/m 6,4 km/h (2 Bft) 97,87 %
18.05.2023 12:38 16,1 C 22,2 C 17,8 C 56 % 1027,6 hPa 0,0 l/m 2 min 0 min 915 W/m 16,1 km/h (3 Bft) 95,74 %
18.05.2023 12:40 16,2 C 22,2 C 18,3 C 56 % 1027,6 hPa 0,0 l/m 2 min 0 min 918 W/m 12,9 km/h (3 Bft) 97,87 %
18.05.2023 12:42 16,2 C 22,2 C 18,9 C 55 % 1027,5 hPa 0,0 l/m 2 min 0 min 920 W/m 12,9 km/h (3 Bft) 97,87 %
18.05.2023 12:44 16,3 C 22,8 C 18,3 C 56 % 1027,6 hPa 0,0 l/m 2 min 0 min 924 W/m 9,7 km/h (2 Bft) 97,87 %
18.05.2023 12:46 16,4 C 22,8 C 18,9 C 55 % 1027,5 hPa 0,0 l/m 2 min 0 min 919 W/m 12,9 km/h (3 Bft) 97,83 %
18.05.2023 12:48 16,4 C 23,3 C 20,0 C 54 % 1027,5 hPa 0,0 l/m 2 min 0 min 921 W/m 6,4 km/h (2 Bft) 97,87 %
18.05.2023 12:50 16,6 C 23,9 C 19,4 C 56 % 1027,5 hPa 0,0 l/m 2 min 0 min 920 W/m 9,7 km/h (2 Bft) 97,87 %
18.05.2023 12:52 16,7 C 23,3 C 19,4 C 55 % 1027,6 hPa 0,0 l/m 2 min 0 min 922 W/m 12,9 km/h (3 Bft) 97,87 %
18.05.2023 12:54 16,8 C 23,3 C 19,4 C 54 % 1027,5 hPa 0,0 l/m 2 min 0 min 927 W/m 16,1 km/h (3 Bft) 97,87 %
18.05.2023 12:56 16,8 C 23,3 C 19,4 C 55 % 1027,5 hPa 0,0 l/m 2 min 0 min 933 W/m 9,7 km/h (2 Bft) 95,74 %
18.05.2023 12:58 16,9 C 23,3 C 18,9 C 54 % 1027,5 hPa 0,0 l/m 2 min 0 min 931 W/m 12,9 km/h (3 Bft) 97,83 %
18.05.2023 13:00 16,9 C 23,9 C 18,9 C 55 % 1027,5 hPa 0,0 l/m 2 min 0 min 931 W/m 9,7 km/h (2 Bft) 97,87 %
18.05.2023 13:02 17,0 C 24,4 C 17,8 C 55 % 1027,5 hPa 0,0 l/m 2 min 0 min 937 W/m 12,9 km/h (3 Bft) 97,87 %
18.05.2023 13:04 17,0 C 23,3 C 17,2 C 54 % 1027,5 hPa 0,0 l/m 2 min 0 min 935 W/m 12,9 km/h (3 Bft) 97,96 %
18.05.2023 13:06 17,1 C 23,9 C 15,6 C 54 % 1027,5 hPa 0,0 l/m 2 min 0 min 934 W/m 12,9 km/h (3 Bft) 97,87 %
18.05.2023 13:08 17,2 C 23,9 C 15,0 C 54 % 1027,6 hPa 0,0 l/m 2 min 0 min 929 W/m 16,1 km/h (3 Bft) 100,00 %
18.05.2023 13:10 17,2 C 23,3 C 13,9 C 53 % 1027,6 hPa 0,0 l/m 2 min 0 min 929 W/m 12,9 km/h (3 Bft) 100,00 %
18.05.2023 13:12 17,3 C 25,0 C 13,9 C 55 % 1027,5 hPa 0,0 l/m 2 min 0 min 932 W/m 9,7 km/h (2 Bft) 100,00 %
18.05.2023 13:14 17,3 C 25,6 C 13,3 C 54 % 1027,5 hPa 0,0 l/m 2 min 0 min 933 W/m 16,1 km/h (3 Bft) 100,00 %
18.05.2023 13:16 17,3 C 24,4 C 13,3 C 52 % 1027,5 hPa 0,0 l/m 2 min 0 min 934 W/m 6,4 km/h (2 Bft) 100,00 %
18.05.2023 13:18 17,2 C 23,9 C 13,3 C 52 % 1027,4 hPa 0,0 l/m 2 min 0 min 934 W/m 9,7 km/h (2 Bft) 97,87 %
18.05.2023 13:20 17,2 C 25,0 C 14,4 C 54 % 1027,4 hPa 0,0 l/m 2 min 0 min 940 W/m 9,7 km/h (2 Bft) 97,87 %
18.05.2023 13:22 17,4 C 26,1 C 14,4 C 55 % 1027,4 hPa 0,0 l/m 2 min 0 min 937 W/m 6,4 km/h (2 Bft) 100,00 %
18.05.2023 13:24 17,4 C 24,4 C 15,0 C 52 % 1027,4 hPa 0,0 l/m 2 min 0 min 938 W/m 16,1 km/h (3 Bft) 100,00 %
18.05.2023 13:26 17,5 C 25,0 C 16,7 C 52 % 1027,3 hPa 0,0 l/m 2 min 0 min 944 W/m 3,2 km/h (1 Bft) 100,00 %
18.05.2023 13:28 17,6 C 25,6 C 17,8 C 53 % 1027,3 hPa 0,0 l/m 2 min 0 min 958 W/m 9,7 km/h (2 Bft) 100,00 %
18.05.2023 13:30 17,6 C 25,6 C 18,9 C 54 % 1027,3 hPa 0,0 l/m 2 min 0 min 968 W/m 6,4 km/h (2 Bft) 100,00 %
18.05.2023 13:32 17,8 C 26,1 C 18,9 C 55 % 1027,3 hPa 0,0 l/m 2 min 0 min 958 W/m 9,7 km/h (2 Bft) 100,00 %
18.05.2023 13:34 17,8 C 26,7 C 18,9 C 54 % 1027,3 hPa 0,0 l/m 2 min 0 min 975 W/m 12,9 km/h (3 Bft) 100,00 %
18.05.2023 13:36 17,9 C 25,6 C 18,9 C 52 % 1027,3 hPa 0,0 l/m 2 min 0 min 956 W/m 16,1 km/h (3 Bft) 100,00 %
18.05.2023 13:38 17,9 C 25,6 C 19,4 C 52 % 1027,3 hPa 0,0 l/m 2 min 0 min 946 W/m 16,1 km/h (3 Bft) 97,87 %
18.05.2023 13:40 17,9 C 25,6 C 19,4 C 52 % 1027,2 hPa 0,0 l/m 2 min 0 min 942 W/m 9,7 km/h (2 Bft) 97,83 %
18.05.2023 13:42 17,9 C 24,4 C 19,4 C 51 % 1027,2 hPa 0,0 l/m 2 min 0 min 937 W/m 12,9 km/h (3 Bft) 97,87 %
18.05.2023 13:44 17,8 C 25,0 C 18,3 C 51 % 1027,2 hPa 0,0 l/m 2 min 0 min 933 W/m 16,1 km/h (3 Bft) 97,87 %
18.05.2023 13:46 17,8 C 25,6 C 17,8 C 52 % 1027,2 hPa 0,0 l/m 2 min 0 min 930 W/m 12,9 km/h (3 Bft) 97,87 %
18.05.2023 13:48 17,8 C 25,6 C 16,7 C 53 % 1027,2 hPa 0,0 l/m 2 min 0 min 927 W/m 9,7 km/h (2 Bft) 95,74 %
18.05.2023 13:50 17,7 C 26,1 C 15,6 C 53 % 1027,2 hPa 0,0 l/m 2 min 0 min 928 W/m 12,9 km/h (3 Bft) 97,87 %
18.05.2023 13:52 17,7 C 25,0 C 15,0 C 53 % 1027,2 hPa 0,0 l/m 2 min 0 min 930 W/m 16,1 km/h (3 Bft) 97,87 %
18.05.2023 13:54 17,6 C 25,0 C 15,0 C 52 % 1027,1 hPa 0,0 l/m 2 min 0 min 932 W/m 19,3 km/h (3 Bft) 97,83 %
18.05.2023 13:56 17,6 C 24,4 C 14,4 C 54 % 1027,1 hPa 0,0 l/m 2 min 0 min 933 W/m 22,5 km/h (4 Bft) 97,87 %
18.05.2023 13:58 17,6 C 24,4 C 13,9 C 53 % 1027,1 hPa 0,0 l/m 2 min 0 min 939 W/m 12,9 km/h (3 Bft) 95,74 %
18.05.2023 14:00 17,6 C 24,4 C 13,9 C 55 % 1027,1 hPa 0,0 l/m 2 min 0 min 935 W/m 16,1 km/h (3 Bft) 97,87 %
18.05.2023 14:02 17,7 C 25,0 C 13,9 C 55 % 1027,1 hPa 0,0 l/m 2 min 0 min 931 W/m 9,7 km/h (2 Bft) 95,74 %
18.05.2023 14:04 17,8 C 25,6 C 13,3 C 54 % 1027,1 hPa 0,0 l/m 2 min 0 min 921 W/m 12,9 km/h (3 Bft) 95,92 %
18.05.2023 14:06 17,9 C 26,1 C 13,3 C 54 % 1027,1 hPa 0,0 l/m 2 min 0 min 915 W/m 9,7 km/h (2 Bft) 96,36 %
18.05.2023 14:08 17,9 C 26,1 C 13,3 C 52 % 1027,1 hPa 0,0 l/m 2 min 0 min 934 W/m 12,9 km/h (3 Bft) 97,87 %
18.05.2023 14:10 17,9 C 25,6 C 13,3 C 53 % 1027,1 hPa 0,0 l/m 2 min 0 min 952 W/m 16,1 km/h (3 Bft) 97,83 %
18.05.2023 14:12 17,9 C 24,4 C 13,3 C 53 % 1027,1 hPa 0,0 l/m 2 min 0 min 952 W/m 12,9 km/h (3 Bft) 97,44 %
18.05.2023 14:14 17,9 C 25,0 C 13,3 C 52 % 1027,0 hPa 0,0 l/m 2 min 0 min 941 W/m 9,7 km/h (2 Bft) 97,83 %
18.05.2023 14:16 18,0 C 26,1 C 13,3 C 53 % 1027,1 hPa 0,0 l/m 2 min 0 min 917 W/m 6,4 km/h (2 Bft) 93,62 %
18.05.2023 14:18 18,1 C 25,6 C 13,3 C 54 % 1027,0 hPa 0,0 l/m 2 min 0 min 915 W/m 12,9 km/h (3 Bft) 97,87 %
18.05.2023 14:20 18,1 C 26,1 C 13,3 C 52 % 1027,0 hPa 0,0 l/m 2 min 0 min 920 W/m 9,7 km/h (2 Bft) 97,87 %
18.05.2023 14:22 18,1 C 25,6 C 13,3 C 50 % 1027,0 hPa 0,0 l/m 2 min 0 min 919 W/m 16,1 km/h (3 Bft) 95,74 %
18.05.2023 14:24 18,1 C 25,0 C 13,9 C 52 % 1027,0 hPa 0,0 l/m 2 min 0 min 914 W/m 9,7 km/h (2 Bft) 100,00 %
18.05.2023 14:26 18,1 C 25,6 C 13,3 C 51 % 1026,9 hPa 0,0 l/m 2 min 0 min 920 W/m 9,7 km/h (2 Bft) 97,83 %
18.05.2023 14:28 18,2 C 26,1 C 13,3 C 53 % 1026,9 hPa 0,0 l/m 2 min 0 min 914 W/m 9,7 km/h (2 Bft) 97,87 %
18.05.2023 14:30 18,2 C 25,0 C 13,3 C 51 % 1026,9 hPa 0,0 l/m 2 min 0 min 903 W/m 16,1 km/h (3 Bft) 97,87 %
18.05.2023 14:32 18,1 C 25,0 C 13,3 C 52 % 1027,0 hPa 0,0 l/m 2 min 0 min 900 W/m 12,9 km/h (3 Bft) 97,87 %
18.05.2023 14:34 18,1 C 25,0 C 13,3 C 51 % 1026,9 hPa 0,0 l/m 2 min 0 min 898 W/m 12,9 km/h (3 Bft) 97,87 %
18.05.2023 14:36 18,1 C 25,6 C 13,3 C 52 % 1026,9 hPa 0,0 l/m 2 min 0 min 908 W/m 12,9 km/h (3 Bft) 95,74 %
18.05.2023 14:38 18,1 C 25,6 C 13,3 C 53 % 1026,9 hPa 0,0 l/m 2 min 0 min 907 W/m 16,1 km/h (3 Bft) 97,87 %
18.05.2023 14:40 18,1 C 25,6 C 13,3 C 53 % 1026,9 hPa 0,0 l/m 2 min 0 min 901 W/m 9,7 km/h (2 Bft) 97,83 %
18.05.2023 14:42 18,2 C 26,1 C 13,3 C 52 % 1026,9 hPa 0,0 l/m 2 min 0 min 893 W/m 16,1 km/h (3 Bft) 97,87 %
18.05.2023 14:44 18,1 C 24,4 C 12,8 C 52 % 1026,9 hPa 0,0 l/m 2 min 0 min 893 W/m 12,9 km/h (3 Bft) 97,87 %
18.05.2023 14:46 18,1 C 23,9 C 12,8 C 52 % 1026,9 hPa 0,0 l/m 2 min 0 min 851 W/m 16,1 km/h (3 Bft) 95,74 %
18.05.2023 14:48 18,1 C 24,4 C 13,3 C 51 % 1026,9 hPa 0,0 l/m 2 min 0 min 895 W/m 16,1 km/h (3 Bft) 95,74 %
18.05.2023 14:50 18,1 C 25,0 C 13,3 C 52 % 1026,8 hPa 0,0 l/m 2 min 0 min 902 W/m 12,9 km/h (3 Bft) 97,87 %
18.05.2023 14:52 18,2 C 25,6 C 13,3 C 52 % 1026,9 hPa 0,0 l/m 2 min 0 min 897 W/m 16,1 km/h (3 Bft) 97,83 %
18.05.2023 14:54 18,2 C 26,1 C 13,3 C 50 % 1026,9 hPa 0,0 l/m 2 min 0 min 894 W/m 9,7 km/h (2 Bft) 97,87 %
18.05.2023 14:56 18,3 C 25,0 C 13,3 C 50 % 1026,8 hPa 0,0 l/m 2 min 0 min 894 W/m 9,7 km/h (2 Bft) 95,74 %
18.05.2023 14:58 18,3 C 25,0 C 13,3 C 53 % 1026,8 hPa 0,0 l/m 2 min 0 min 883 W/m 12,9 km/h (3 Bft) 97,87 %
18.05.2023 15:00 18,2 C 23,9 C 13,3 C 50 % 1026,8 hPa 0,0 l/m 2 min 0 min 877 W/m 16,1 km/h (3 Bft) 100,00 %
18.05.2023 15:02 18,1 C 23,3 C 13,3 C 52 % 1026,8 hPa 0,0 l/m 2 min 0 min 871 W/m 19,3 km/h (3 Bft) 100,00 %
18.05.2023 15:04 18,1 C 23,3 C 12,8 C 51 % 1026,8 hPa 0,0 l/m 2 min 0 min 869 W/m 16,1 km/h (3 Bft) 97,56 %
18.05.2023 15:06 18,1 C 24,4 C 12,8 C 51 % 1026,8 hPa 0,0 l/m 2 min 0 min 872 W/m 12,9 km/h (3 Bft) 96,92 %
18.05.2023 15:08 18,1 C 24,4 C 12,8 C 50 % 1026,7 hPa 0,0 l/m 2 min 0 min 863 W/m 12,9 km/h (3 Bft) 97,14 %
18.05.2023 15:10 18,0 C 25,6 C 12,8 C 51 % 1026,7 hPa 0,0 l/m 2 min 0 min 867 W/m 9,7 km/h (2 Bft) 97,87 %
18.05.2023 15:12 18,1 C 26,1 C 12,8 C 52 % 1026,7 hPa 0,0 l/m 2 min 0 min 866 W/m 12,9 km/h (3 Bft) 97,87 %
18.05.2023 15:14 18,2 C 26,1 C 13,3 C 53 % 1026,6 hPa 0,0 l/m 2 min 0 min 856 W/m 16,1 km/h (3 Bft) 97,87 %
18.05.2023 15:16 18,3 C 25,6 C 13,3 C 51 % 1026,5 hPa 0,0 l/m 2 min 0 min 852 W/m 12,9 km/h (3 Bft) 97,87 %
18.05.2023 15:18 18,3 C 25,0 C 13,3 C 53 % 1026,5 hPa 0,0 l/m 2 min 0 min 852 W/m 22,5 km/h (4 Bft) 95,74 %
18.05.2023 15:20 18,4 C 25,0 C 13,3 C 53 % 1026,6 hPa 0,0 l/m 2 min 0 min 856 W/m 16,1 km/h (3 Bft) 95,65 %
18.05.2023 15:22 18,4 C 25,0 C 13,3 C 52 % 1026,5 hPa 0,0 l/m 2 min 0 min 862 W/m 12,9 km/h (3 Bft) 97,87 %
18.05.2023 15:24 18,4 C 25,0 C 13,3 C 50 % 1026,5 hPa 0,0 l/m 2 min 0 min 858 W/m 16,1 km/h (3 Bft) 97,87 %
18.05.2023 15:26 18,4 C 25,6 C 13,3 C 51 % 1026,5 hPa 0,0 l/m 2 min 0 min 858 W/m 16,1 km/h (3 Bft) 93,62 %
18.05.2023 15:28 18,4 C 25,6 C 13,3 C 52 % 1026,5 hPa 0,0 l/m 2 min 0 min 851 W/m 16,1 km/h (3 Bft) 95,74 %
18.05.2023 15:30 18,5 C 25,6 C 13,3 C 51 % 1026,5 hPa 0,0 l/m 2 min 0 min 846 W/m 12,9 km/h (3 Bft) 97,87 %
18.05.2023 15:32 18,5 C 25,0 C 13,3 C 50 % 1026,4 hPa 0,0 l/m 2 min 0 min 846 W/m 9,7 km/h (2 Bft) 97,83 %
18.05.2023 15:34 18,5 C 25,0 C 13,3 C 50 % 1026,3 hPa 0,0 l/m 2 min 0 min 845 W/m 6,4 km/h (2 Bft) 97,87 %
18.05.2023 15:36 18,5 C 25,0 C 13,3 C 50 % 1026,3 hPa 0,0 l/m 2 min 0 min 841 W/m 16,1 km/h (3 Bft) 93,62 %
18.05.2023 15:38 18,6 C 25,0 C 13,3 C 51 % 1026,3 hPa 0,0 l/m 2 min 0 min 824 W/m 19,3 km/h (3 Bft) 93,62 %
18.05.2023 15:40 18,5 C 24,4 C 13,3 C 51 % 1026,3 hPa 0,0 l/m 2 min 0 min 815 W/m 16,1 km/h (3 Bft) 95,74 %
18.05.2023 15:42 18,4 C 23,9 C 13,3 C 51 % 1026,4 hPa 0,0 l/m 2 min 0 min 797 W/m 19,3 km/h (3 Bft) 97,87 %
18.05.2023 15:44 18,4 C 23,9 C 13,3 C 50 % 1026,3 hPa 0,0 l/m 2 min 0 min 797 W/m 12,9 km/h (3 Bft) 97,83 %
18.05.2023 15:46 18,3 C 23,9 C 12,8 C 50 % 1026,3 hPa 0,0 l/m 2 min 0 min 798 W/m 16,1 km/h (3 Bft) 97,87 %
18.05.2023 15:48 18,3 C 22,8 C 12,8 C 50 % 1026,3 hPa 0,0 l/m 2 min 0 min 769 W/m 16,1 km/h (3 Bft) 97,87 %
18.05.2023 15:50 18,2 C 22,8 C 12,8 C 51 % 1026,3 hPa 0,0 l/m 2 min 0 min 767 W/m 16,1 km/h (3 Bft) 97,87 %
18.05.2023 15:52 18,1 C 22,8 C 12,8 C 51 % 1026,3 hPa 0,0 l/m 2 min 0 min 784 W/m 19,3 km/h (3 Bft) 95,74 %
18.05.2023 15:54 18,1 C 23,9 C 12,8 C 51 % 1026,2 hPa 0,0 l/m 2 min 0 min 773 W/m 9,7 km/h (2 Bft) 97,87 %
18.05.2023 15:56 18,1 C 23,3 C 12,8 C 51 % 1026,2 hPa 0,0 l/m 2 min 0 min 766 W/m 16,1 km/h (3 Bft) 97,87 %
18.05.2023 15:58 18,1 C 23,3 C 13,3 C 52 % 1026,2 hPa 0,0 l/m 2 min 0 min 769 W/m 16,1 km/h (3 Bft) 98,11 %
18.05.2023 16:00 18,2 C 23,3 C 13,3 C 52 % 1026,2 hPa 0,0 l/m 2 min 0 min 773 W/m 12,9 km/h (3 Bft) 100,00 %
18.05.2023 16:02 18,2 C 23,9 C 13,3 C 53 % 1026,2 hPa 0,0 l/m 2 min 0 min 789 W/m 16,1 km/h (3 Bft) 100,00 %
18.05.2023 16:04 18,2 C 23,9 C 13,3 C 51 % 1026,2 hPa 0,0 l/m 2 min 0 min 784 W/m 9,7 km/h (2 Bft) 100,00 %
18.05.2023 16:06 18,3 C 24,4 C 13,3 C 52 % 1026,1 hPa 0,0 l/m 2 min 0 min 787 W/m 16,1 km/h (3 Bft) 100,00 %
18.05.2023 16:08 18,4 C 25,0 C 13,9 C 52 % 1026,1 hPa 0,0 l/m 2 min 0 min 784 W/m 12,9 km/h (3 Bft) 100,00 %
18.05.2023 16:10 18,4 C 25,0 C 13,9 C 51 % 1026,1 hPa 0,0 l/m 2 min 0 min 783 W/m 12,9 km/h (3 Bft) 100,00 %
18.05.2023 16:12 18,6 C 25,6 C 13,9 C 51 % 1026,1 hPa 0,0 l/m 2 min 0 min 774 W/m 12,9 km/h (3 Bft) 100,00 %
18.05.2023 16:14 18,6 C 25,0 C 13,9 C 52 % 1026,1 hPa 0,0 l/m 2 min 0 min 762 W/m 12,9 km/h (3 Bft) 100,00 %
18.05.2023 16:16 18,7 C 24,4 C 13,9 C 53 % 1026,1 hPa 0,0 l/m 2 min 0 min 756 W/m 16,1 km/h (3 Bft) 97,87 %
18.05.2023 16:18 18,7 C 23,3 C 13,9 C 50 % 1026,0 hPa 0,0 l/m 2 min 0 min 755 W/m 19,3 km/h (3 Bft) 93,62 %
18.05.2023 16:20 18,6 C 23,3 C 13,9 C 52 % 1026,0 hPa 0,0 l/m 2 min 0 min 751 W/m 9,7 km/h (2 Bft) 100,00 %
18.05.2023 16:22 18,6 C 23,3 C 13,3 C 51 % 1026,0 hPa 0,0 l/m 2 min 0 min 746 W/m 12,9 km/h (3 Bft) 97,83 %
18.05.2023 16:24 18,6 C 23,3 C 13,9 C 52 % 1025,9 hPa 0,0 l/m 2 min 0 min 748 W/m 16,1 km/h (3 Bft) 97,87 %
18.05.2023 16:26 18,5 C 22,8 C 13,9 C 51 % 1025,9 hPa 0,0 l/m 2 min 0 min 752 W/m 19,3 km/h (3 Bft) 95,74 %
18.05.2023 16:28 18,4 C 22,2 C 13,3 C 50 % 1025,9 hPa 0,0 l/m 2 min 0 min 748 W/m 22,5 km/h (4 Bft) 95,74 %
18.05.2023 16:30 18,3 C 22,8 C 13,9 C 51 % 1025,8 hPa 0,0 l/m 2 min 0 min 741 W/m 12,9 km/h (3 Bft) 95,74 %
18.05.2023 16:32 18,4 C 22,8 C 13,9 C 51 % 1025,8 hPa 0,0 l/m 2 min 0 min 739 W/m 16,1 km/h (3 Bft) 93,62 %
18.05.2023 16:34 18,4 C 23,9 C 13,9 C 52 % 1025,8 hPa 0,0 l/m 2 min 0 min 735 W/m 12,9 km/h (3 Bft) 95,65 %
18.05.2023 16:36 18,4 C 23,9 C 13,9 C 52 % 1025,9 hPa 0,0 l/m 2 min 0 min 728 W/m 12,9 km/h (3 Bft) 93,62 %
18.05.2023 16:38 18,4 C 23,9 C 14,4 C 52 % 1025,8 hPa 0,0 l/m 2 min 0 min 726 W/m 9,7 km/h (2 Bft) 93,62 %
18.05.2023 16:40 18,5 C 23,9 C 13,9 C 51 % 1025,8 hPa 0,0 l/m 2 min 0 min 721 W/m 16,1 km/h (3 Bft) 95,74 %
18.05.2023 16:42 18,5 C 23,9 C 13,9 C 51 % 1025,8 hPa 0,0 l/m 2 min 0 min 715 W/m 19,3 km/h (3 Bft) 93,62 %
18.05.2023 16:44 18,5 C 23,9 C 13,9 C 50 % 1025,9 hPa 0,0 l/m 2 min 0 min 712 W/m 12,9 km/h (3 Bft) 95,74 %
18.05.2023 16:46 18,5 C 23,3 C 13,9 C 50 % 1025,9 hPa 0,0 l/m 2 min 0 min 711 W/m 12,9 km/h (3 Bft) 95,65 %
18.05.2023 16:48 18,6 C 23,3 C 13,9 C 50 % 1025,8 hPa 0,0 l/m 2 min 0 min 708 W/m 16,1 km/h (3 Bft) 95,74 %
18.05.2023 16:50 18,5 C 22,2 C 13,9 C 49 % 1025,8 hPa 0,0 l/m 2 min 0 min 701 W/m 19,3 km/h (3 Bft) 95,74 %
18.05.2023 16:52 18,4 C 22,8 C 13,9 C 50 % 1025,8 hPa 0,0 l/m 2 min 0 min 688 W/m 12,9 km/h (3 Bft) 95,74 %
18.05.2023 16:54 18,4 C 22,8 C 13,9 C 50 % 1025,8 hPa 0,0 l/m 2 min 0 min 652 W/m 16,1 km/h (3 Bft) 91,49 %
18.05.2023 16:56 18,4 C 22,8 C 14,4 C 51 % 1025,8 hPa 0,0 l/m 2 min 0 min 595 W/m 16,1 km/h (3 Bft) 95,74 %
18.05.2023 16:58 18,4 C 22,2 C 14,4 C 51 % 1025,8 hPa 0,0 l/m 2 min 0 min 629 W/m 16,1 km/h (3 Bft) 93,62 %
18.05.2023 17:00 18,3 C 22,2 C 14,4 C 50 % 1025,8 hPa 0,0 l/m 2 min 0 min 641 W/m 9,7 km/h (2 Bft) 97,83 %
18.05.2023 17:02 18,3 C 23,3 C 14,4 C 51 % 1025,8 hPa 0,0 l/m 2 min 0 min 636 W/m 6,4 km/h (2 Bft) 97,87 %
18.05.2023 17:04 18,4 C 23,3 C 14,4 C 51 % 1025,8 hPa 0,0 l/m 2 min 0 min 618 W/m 9,7 km/h (2 Bft) 97,87 %
18.05.2023 17:06 18,5 C 22,8 C 14,4 C 51 % 1025,8 hPa 0,0 l/m 2 min 0 min 629 W/m 16,1 km/h (3 Bft) 95,74 %
18.05.2023 17:08 18,5 C 22,2 C 14,4 C 50 % 1025,8 hPa 0,0 l/m 2 min 0 min 614 W/m 12,9 km/h (3 Bft) 97,87 %
18.05.2023 17:10 18,4 C 22,8 C 14,4 C 50 % 1025,8 hPa 0,0 l/m 2 min 0 min 599 W/m 12,9 km/h (3 Bft) 95,74 %
18.05.2023 17:12 18,4 C 22,2 C 14,4 C 50 % 1025,7 hPa 0,0 l/m 2 min 0 min 563 W/m 12,9 km/h (3 Bft) 100,00 %
18.05.2023 17:14 18,4 C 22,8 C 14,4 C 51 % 1025,7 hPa 0,0 l/m 2 min 0 min 574 W/m 12,9 km/h (3 Bft) 100,00 %
18.05.2023 17:16 18,5 C 23,3 C 15,0 C 53 % 1025,8 hPa 0,0 l/m 2 min 0 min 599 W/m 12,9 km/h (3 Bft) 100,00 %
18.05.2023 17:18 18,6 C 23,3 C 15,0 C 51 % 1025,8 hPa 0,0 l/m 2 min 0 min 581 W/m 12,9 km/h (3 Bft) 97,87 %
18.05.2023 17:20 18,6 C 22,8 C 14,4 C 51 % 1025,8 hPa 0,0 l/m 2 min 0 min 566 W/m 12,9 km/h (3 Bft) 100,00 %
18.05.2023 17:22 18,7 C 22,8 C 15,0 C 51 % 1025,8 hPa 0,0 l/m 2 min 0 min 568 W/m 9,7 km/h (2 Bft) 100,00 %
18.05.2023 17:24 18,7 C 22,2 C 14,4 C 50 % 1025,8 hPa 0,0 l/m 2 min 0 min 539 W/m 16,1 km/h (3 Bft) 100,00 %
18.05.2023 17:26 18,6 C 22,2 C 14,4 C 51 % 1025,8 hPa 0,0 l/m 2 min 0 min 505 W/m 16,1 km/h (3 Bft) 100,00 %
18.05.2023 17:28 18,4 C 21,7 C 14,4 C 50 % 1025,8 hPa 0,0 l/m 2 min 0 min 498 W/m 12,9 km/h (3 Bft) 100,00 %
18.05.2023 17:30 18,4 C 21,7 C 14,4 C 51 % 1025,8 hPa 0,0 l/m 2 min 0 min 526 W/m 19,3 km/h (3 Bft) 97,87 %
18.05.2023 17:32 18,3 C 21,1 C 14,4 C 51 % 1025,8 hPa 0,0 l/m 2 min 0 min 481 W/m 12,9 km/h (3 Bft) 97,87 %
18.05.2023 17:34 18,3 C 21,1 C 13,9 C 51 % 1025,7 hPa 0,0 l/m 2 min 0 min 485 W/m 12,9 km/h (3 Bft) 100,00 %
18.05.2023 17:36 18,3 C 21,1 C 14,4 C 52 % 1025,7 hPa 0,0 l/m 2 min 0 min 520 W/m 9,7 km/h (2 Bft) 100,00 %
18.05.2023 17:38 18,4 C 22,2 C 14,4 C 52 % 1025,7 hPa 0,0 l/m 2 min 0 min 532 W/m 6,4 km/h (2 Bft) 100,00 %
18.05.2023 17:40 18,5 C 22,8 C 15,0 C 52 % 1025,7 hPa 0,0 l/m 2 min 0 min 542 W/m 16,1 km/h (3 Bft) 100,00 %
18.05.2023 17:42 18,4 C 22,2 C 14,4 C 50 % 1025,7 hPa 0,0 l/m 2 min 0 min 523 W/m 22,5 km/h (4 Bft) 100,00 %
18.05.2023 17:44 18,4 C 22,2 C 15,0 C 52 % 1025,7 hPa 0,0 l/m 2 min 0 min 515 W/m 9,7 km/h (2 Bft) 100,00 %
18.05.2023 17:46 18,6 C 22,2 C 15,0 C 52 % 1025,7 hPa 0,0 l/m 2 min 0 min 518 W/m 22,5 km/h (4 Bft) 100,00 %
18.05.2023 17:48 18,4 C 21,1 C 14,4 C 51 % 1025,7 hPa 0,0 l/m 2 min 0 min 508 W/m 25,7 km/h (4 Bft) 100,00 %
18.05.2023 17:50 18,3 C 21,1 C 14,4 C 51 % 1025,7 hPa 0,0 l/m 2 min 0 min 494 W/m 16,1 km/h (3 Bft) 100,00 %
18.05.2023 17:52 18,3 C 21,7 C 14,4 C 52 % 1025,7 hPa 0,0 l/m 2 min 0 min 491 W/m 16,1 km/h (3 Bft) 100,00 %
18.05.2023 17:54 18,2 C 22,2 C 14,4 C 52 % 1025,6 hPa 0,0 l/m 2 min 0 min 481 W/m 19,3 km/h (3 Bft) 100,00 %
18.05.2023 17:56 18,3 C 22,2 C 14,4 C 51 % 1025,6 hPa 0,0 l/m 2 min 0 min 484 W/m 12,9 km/h (3 Bft) 100,00 %
18.05.2023 17:58 18,3 C 22,2 C 15,0 C 52 % 1025,5 hPa 0,0 l/m 2 min 0 min 489 W/m 12,9 km/h (3 Bft) 97,87 %
18.05.2023 18:00 18,4 C 22,8 C 15,0 C 51 % 1025,6 hPa 0,0 l/m 2 min 0 min 482 W/m 16,1 km/h (3 Bft) 97,14 %
18.05.2023 18:02 18,4 C 22,8 C 15,0 C 52 % 1025,6 hPa 0,0 l/m 2 min 0 min 427 W/m 16,1 km/h (3 Bft) 100,00 %
18.05.2023 18:04 18,4 C 21,7 C 14,4 C 50 % 1025,6 hPa 0,0 l/m 2 min 0 min 436 W/m 16,1 km/h (3 Bft) 100,00 %
18.05.2023 18:08 18,3 C 22,2 C 14,4 C 52 % 1025,5 hPa 0,0 l/m 4 min 0 min 462 W/m 19,3 km/h (3 Bft) 97,00 %
18.05.2023 18:10 18,3 C 22,2 C 15,0 C 53 % 1025,5 hPa 0,0 l/m 2 min 0 min 456 W/m 9,7 km/h (2 Bft) 100,00 %
18.05.2023 18:12 18,4 C 23,3 C 15,0 C 54 % 1025,5 hPa 0,0 l/m 2 min 0 min 456 W/m 6,4 km/h (2 Bft) 100,00 %
18.05.2023 18:14 18,4 C 22,8 C 15,0 C 52 % 1025,5 hPa 0,0 l/m 2 min 0 min 458 W/m 16,1 km/h (3 Bft) 100,00 %
18.05.2023 18:16 18,5 C 22,8 C 15,0 C 51 % 1025,5 hPa 0,0 l/m 2 min 0 min 452 W/m 9,7 km/h (2 Bft) 97,87 %
18.05.2023 18:18 18,6 C 22,8 C 15,0 C 51 % 1025,5 hPa 0,0 l/m 2 min 0 min 434 W/m 9,7 km/h (2 Bft) 97,87 %
18.05.2023 18:20 18,4 C 22,8 C 15,0 C 53 % 1025,5 hPa 0,0 l/m 2 min 0 min 430 W/m 12,9 km/h (3 Bft) 97,83 %
18.05.2023 18:22 18,4 C 22,8 C 15,0 C 53 % 1025,4 hPa 0,0 l/m 2 min 0 min 409 W/m 12,9 km/h (3 Bft) 95,74 %
18.05.2023 18:24 18,5 C 22,2 C 15,0 C 53 % 1025,5 hPa 0,0 l/m 2 min 0 min 354 W/m 12,9 km/h (3 Bft) 97,87 %
18.05.2023 18:26 18,4 C 22,2 C 15,0 C 53 % 1025,5 hPa 0,0 l/m 2 min 0 min 345 W/m 19,3 km/h (3 Bft) 97,87 %
18.05.2023 18:28 18,3 C 21,7 C 14,4 C 53 % 1025,5 hPa 0,0 l/m 2 min 0 min 380 W/m 22,5 km/h (4 Bft) 97,87 %
18.05.2023 18:30 18,3 C 22,2 C 14,4 C 53 % 1025,4 hPa 0,0 l/m 2 min 0 min 369 W/m 9,7 km/h (2 Bft) 97,87 %
18.05.2023 18:32 18,3 C 21,7 C 14,4 C 52 % 1025,5 hPa 0,0 l/m 2 min 0 min 372 W/m 12,9 km/h (3 Bft) 95,74 %
18.05.2023 18:34 18,2 C 21,7 C 14,4 C 52 % 1025,4 hPa 0,0 l/m 2 min 0 min 370 W/m 12,9 km/h (3 Bft) 97,83 %
18.05.2023 18:36 18,2 C 22,2 C 14,4 C 53 % 1025,4 hPa 0,0 l/m 2 min 0 min 360 W/m 9,7 km/h (2 Bft) 97,87 %
18.05.2023 18:38 18,2 C 22,2 C 14,4 C 52 % 1025,4 hPa 0,0 l/m 2 min 0 min 352 W/m 16,1 km/h (3 Bft) 97,87 %
18.05.2023 18:40 18,2 C 22,2 C 14,4 C 53 % 1025,4 hPa 0,0 l/m 2 min 0 min 344 W/m 12,9 km/h (3 Bft) 93,62 %
18.05.2023 18:42 18,2 C 22,2 C 14,4 C 53 % 1025,4 hPa 0,0 l/m 2 min 0 min 339 W/m 12,9 km/h (3 Bft) 97,14 %
18.05.2023 18:44 18,2 C 22,2 C 14,4 C 53 % 1025,5 hPa 0,0 l/m 2 min 0 min 342 W/m 9,7 km/h (2 Bft) 100,00 %
18.05.2023 18:46 18,1 C 22,2 C 13,9 C 53 % 1025,4 hPa 0,0 l/m 2 min 0 min 341 W/m 12,9 km/h (3 Bft) 97,14 %
18.05.2023 18:48 18,1 C 22,2 C 13,9 C 53 % 1025,5 hPa 0,0 l/m 2 min 0 min 339 W/m 9,7 km/h (2 Bft) 98,28 %
18.05.2023 18:50 18,1 C 22,2 C 13,9 C 54 % 1025,4 hPa 0,0 l/m 2 min 0 min 339 W/m 22,5 km/h (4 Bft) 94,29 %
18.05.2023 18:52 18,1 C 22,2 C 13,3 C 53 % 1025,4 hPa 0,0 l/m 2 min 0 min 336 W/m 16,1 km/h (3 Bft) 96,61 %
18.05.2023 18:54 18,0 C 22,2 C 13,3 C 53 % 1025,4 hPa 0,0 l/m 2 min 0 min 335 W/m 9,7 km/h (2 Bft) 93,62 %
18.05.2023 18:56 18,0 C 22,2 C 13,3 C 53 % 1025,5 hPa 0,0 l/m 2 min 0 min 329 W/m 9,7 km/h (2 Bft) 93,62 %
18.05.2023 18:58 17,9 C 22,2 C 13,3 C 53 % 1025,4 hPa 0,0 l/m 2 min 0 min 323 W/m 12,9 km/h (3 Bft) 94,29 %
18.05.2023 19:00 17,9 C 22,2 C 13,3 C 55 % 1025,4 hPa 0,0 l/m 2 min 0 min 317 W/m 6,4 km/h (2 Bft) 93,10 %
18.05.2023 19:02 17,8 C 22,2 C 12,8 C 54 % 1025,4 hPa 0,0 l/m 2 min 0 min 310 W/m 9,7 km/h (2 Bft) 91,43 %
18.05.2023 19:04 17,7 C 21,1 C 12,8 C 53 % 1025,3 hPa 0,0 l/m 2 min 0 min 303 W/m 19,3 km/h (3 Bft) 90,70 %
18.05.2023 19:06 17,6 C 21,1 C 12,8 C 54 % 1025,3 hPa 0,0 l/m 2 min 0 min 296 W/m 12,9 km/h (3 Bft) 93,10 %
18.05.2023 19:08 17,5 C 20,6 C 12,8 C 54 % 1025,3 hPa 0,0 l/m 2 min 0 min 284 W/m 12,9 km/h (3 Bft) 94,44 %
18.05.2023 19:10 17,4 C 20,0 C 12,8 C 54 % 1025,3 hPa 0,0 l/m 2 min 0 min 272 W/m 16,1 km/h (3 Bft) 93,48 %
18.05.2023 19:12 17,3 C 18,9 C 12,8 C 54 % 1025,3 hPa 0,0 l/m 2 min 0 min 267 W/m 19,3 km/h (3 Bft) 94,64 %
18.05.2023 19:14 17,2 C 18,3 C 12,8 C 54 % 1025,3 hPa 0,0 l/m 2 min 0 min 261 W/m 19,3 km/h (3 Bft) 93,62 %
18.05.2023 19:16 17,1 C 17,2 C 12,2 C 54 % 1025,3 hPa 0,0 l/m 2 min 0 min 251 W/m 19,3 km/h (3 Bft) 93,88 %
18.05.2023 19:18 17,0 C 16,7 C 12,2 C 55 % 1025,3 hPa 0,0 l/m 2 min 0 min 241 W/m 19,3 km/h (3 Bft) 95,74 %
18.05.2023 19:20 16,9 C 16,7 C 12,2 C 55 % 1025,3 hPa 0,0 l/m 2 min 0 min 231 W/m 12,9 km/h (3 Bft) 95,74 %
18.05.2023 19:22 16,8 C 16,7 C 12,2 C 55 % 1025,3 hPa 0,0 l/m 2 min 0 min 214 W/m 12,9 km/h (3 Bft) 95,74 %
18.05.2023 19:24 16,8 C 16,7 C 12,2 C 56 % 1025,3 hPa 0,0 l/m 2 min 0 min 195 W/m 12,9 km/h (3 Bft) 95,74 %
18.05.2023 19:26 16,8 C 16,1 C 12,2 C 56 % 1025,3 hPa 0,0 l/m 2 min 0 min 185 W/m 16,1 km/h (3 Bft) 93,62 %
18.05.2023 19:28 16,7 C 16,1 C 12,2 C 55 % 1025,3 hPa 0,0 l/m 2 min 0 min 175 W/m 9,7 km/h (2 Bft) 95,65 %
18.05.2023 19:30 16,7 C 16,1 C 12,2 C 55 % 1025,3 hPa 0,0 l/m 2 min 0 min 160 W/m 12,9 km/h (3 Bft) 95,74 %
18.05.2023 19:32 16,6 C 16,1 C 12,2 C 56 % 1025,3 hPa 0,0 l/m 0 min 0 min 111 W/m 16,1 km/h (3 Bft) 93,62 %
18.05.2023 19:34 16,6 C 16,1 C 12,2 C 56 % 1025,3 hPa 0,0 l/m 0 min 0 min 76 W/m 9,7 km/h (2 Bft) 100,00 %
18.05.2023 19:36 16,4 C 16,1 C 11,7 C 57 % 1025,3 hPa 0,0 l/m 0 min 0 min 68 W/m 12,9 km/h (3 Bft) 100,00 %
18.05.2023 19:38 16,4 C 15,6 C 11,7 C 57 % 1025,3 hPa 0,0 l/m 0 min 0 min 63 W/m 12,9 km/h (3 Bft) 100,00 %
18.05.2023 19:40 16,3 C 15,6 C 11,7 C 58 % 1025,3 hPa 0,0 l/m 0 min 0 min 59 W/m 12,9 km/h (3 Bft) 100,00 %
18.05.2023 19:42 16,2 C 15,6 C 11,7 C 58 % 1025,3 hPa 0,0 l/m 0 min 0 min 57 W/m 16,1 km/h (3 Bft) 97,87 %
18.05.2023 19:44 16,1 C 15,6 C 11,7 C 59 % 1025,3 hPa 0,0 l/m 0 min 0 min 54 W/m 6,4 km/h (2 Bft) 100,00 %
18.05.2023 19:46 16,1 C 15,6 C 11,7 C 58 % 1025,3 hPa 0,0 l/m 0 min 0 min 52 W/m 12,9 km/h (3 Bft) 100,00 %
18.05.2023 19:48 16,0 C 15,6 C 11,1 C 58 % 1025,3 hPa 0,0 l/m 0 min 0 min 51 W/m 9,7 km/h (2 Bft) 100,00 %
18.05.2023 19:50 15,9 C 15,0 C 11,1 C 58 % 1025,3 hPa 0,0 l/m 0 min 0 min 50 W/m 19,3 km/h (3 Bft) 97,87 %
18.05.2023 19:52 15,8 C 15,0 C 11,7 C 58 % 1025,3 hPa 0,0 l/m 0 min 0 min 49 W/m 6,4 km/h (2 Bft) 100,00 %
18.05.2023 19:54 15,8 C 15,0 C 11,1 C 58 % 1025,3 hPa 0,0 l/m 0 min 0 min 49 W/m 16,1 km/h (3 Bft) 100,00 %
18.05.2023 19:56 15,8 C 15,0 C 11,1 C 58 % 1025,3 hPa 0,0 l/m 0 min 0 min 49 W/m 6,4 km/h (2 Bft) 97,87 %
18.05.2023 19:58 15,7 C 15,0 C 11,1 C 59 % 1025,3 hPa 0,0 l/m 0 min 0 min 49 W/m 3,2 km/h (1 Bft) 100,00 %
18.05.2023 20:00 15,7 C 15,0 C 11,1 C 59 % 1025,3 hPa 0,0 l/m 0 min 0 min 47 W/m 22,5 km/h (4 Bft) 100,00 %
18.05.2023 20:02 15,7 C 15,0 C 11,1 C 58 % 1025,3 hPa 0,0 l/m 0 min 0 min 47 W/m 16,1 km/h (3 Bft) 97,87 %
18.05.2023 20:04 15,7 C 15,0 C 11,1 C 58 % 1025,3 hPa 0,0 l/m 0 min 0 min 46 W/m 12,9 km/h (3 Bft) 100,00 %
18.05.2023 20:06 15,7 C 15,0 C 11,1 C 59 % 1025,3 hPa 0,0 l/m 0 min 0 min 46 W/m 9,7 km/h (2 Bft) 100,00 %
18.05.2023 20:08 15,7 C 15,0 C 11,1 C 59 % 1025,3 hPa 0,0 l/m 0 min 0 min 44 W/m 6,4 km/h (2 Bft) 100,00 %
18.05.2023 20:10 15,6 C 15,0 C 11,1 C 58 % 1025,3 hPa 0,0 l/m 0 min 0 min 43 W/m 6,4 km/h (2 Bft) 100,00 %
18.05.2023 20:12 15,6 C 15,0 C 11,1 C 58 % 1025,3 hPa 0,0 l/m 0 min 0 min 42 W/m 9,7 km/h (2 Bft) 100,00 %
18.05.2023 20:14 15,6 C 15,0 C 11,1 C 59 % 1025,3 hPa 0,0 l/m 0 min 0 min 40 W/m 9,7 km/h (2 Bft) 100,00 %
18.05.2023 20:16 15,6 C 15,0 C 11,1 C 59 % 1025,4 hPa 0,0 l/m 0 min 0 min 40 W/m 6,4 km/h (2 Bft) 100,00 %
18.05.2023 20:18 15,5 C 14,4 C 11,1 C 59 % 1025,4 hPa 0,0 l/m 0 min 0 min 39 W/m 12,9 km/h (3 Bft) 100,00 %
18.05.2023 20:20 15,4 C 14,4 C 11,1 C 59 % 1025,4 hPa 0,0 l/m 0 min 0 min 37 W/m 9,7 km/h (2 Bft) 97,83 %
18.05.2023 20:22 15,4 C 14,4 C 11,1 C 59 % 1025,4 hPa 0,0 l/m 0 min 0 min 37 W/m 12,9 km/h (3 Bft) 100,00 %
18.05.2023 20:24 15,4 C 14,4 C 11,1 C 59 % 1025,3 hPa 0,0 l/m 0 min 0 min 35 W/m 12,9 km/h (3 Bft) 97,87 %
18.05.2023 20:26 15,3 C 14,4 C 11,1 C 59 % 1025,4 hPa 0,0 l/m 0 min 0 min 33 W/m 6,4 km/h (2 Bft) 100,00 %
18.05.2023 20:28 15,3 C 14,4 C 10,6 C 59 % 1025,4 hPa 0,0 l/m 0 min 0 min 32 W/m 9,7 km/h (2 Bft) 97,87 %
18.05.2023 20:30 15,3 C 14,4 C 10,6 C 60 % 1025,4 hPa 0,0 l/m 0 min 0 min 32 W/m 9,7 km/h (2 Bft) 100,00 %
18.05.2023 20:32 15,2 C 14,4 C 10,6 C 60 % 1025,4 hPa 0,0 l/m 0 min 0 min 30 W/m 9,7 km/h (2 Bft) 100,00 %
18.05.2023 20:34 15,2 C 14,4 C 10,6 C 60 % 1025,4 hPa 0,0 l/m 0 min 0 min 28 W/m 16,1 km/h (3 Bft) 97,83 %
18.05.2023 20:36 15,1 C 14,4 C 10,6 C 60 % 1025,4 hPa 0,0 l/m 0 min 0 min 26 W/m 6,4 km/h (2 Bft) 95,74 %
18.05.2023 20:38 15,1 C 14,4 C 10,6 C 60 % 1025,4 hPa 0,0 l/m 0 min 0 min 25 W/m 3,2 km/h (1 Bft) 100,00 %
18.05.2023 20:40 15,1 C 13,9 C 10,6 C 60 % 1025,5 hPa 0,0 l/m 0 min 0 min 24 W/m 12,9 km/h (3 Bft) 97,87 %
18.05.2023 20:42 15,1 C 13,9 C 10,6 C 61 % 1025,5 hPa 0,0 l/m 0 min 0 min 23 W/m 6,4 km/h (2 Bft) 97,87 %
18.05.2023 20:44 15,0 C 13,9 C 10,6 C 61 % 1025,5 hPa 0,0 l/m 0 min 0 min 21 W/m 12,9 km/h (3 Bft) 100,00 %
18.05.2023 20:46 14,9 C 13,9 C 10,6 C 60 % 1025,5 hPa 0,0 l/m 0 min 0 min 20 W/m 6,4 km/h (2 Bft) 95,65 %
18.05.2023 20:48 14,9 C 13,9 C 10,6 C 60 % 1025,4 hPa 0,0 l/m 0 min 0 min 19 W/m 12,9 km/h (3 Bft) 95,74 %
18.05.2023 20:50 14,9 C 13,9 C 10,6 C 60 % 1025,5 hPa 0,0 l/m 0 min 0 min 19 W/m 9,7 km/h (2 Bft) 97,87 %
18.05.2023 20:52 14,8 C 13,9 C 10,6 C 60 % 1025,5 hPa 0,0 l/m 0 min 0 min 18 W/m 6,4 km/h (2 Bft) 95,83 %
18.05.2023 20:54 14,8 C 13,9 C 10,6 C 60 % 1025,4 hPa 0,0 l/m 0 min 0 min 16 W/m 9,7 km/h (2 Bft) 95,74 %
18.05.2023 20:56 14,8 C 13,9 C 10,6 C 60 % 1025,5 hPa 0,0 l/m 0 min 0 min 15 W/m 19,3 km/h (3 Bft) 93,62 %
18.05.2023 20:58 14,7 C 13,9 C 10,0 C 61 % 1025,5 hPa 0,0 l/m 0 min 0 min 14 W/m 9,7 km/h (2 Bft) 93,62 %
18.05.2023 21:00 14,7 C 13,9 C 10,0 C 61 % 1025,4 hPa 0,0 l/m 0 min 0 min 12 W/m 9,7 km/h (2 Bft) 95,74 %
18.05.2023 21:02 14,6 C 13,3 C 10,0 C 61 % 1025,5 hPa 0,0 l/m 0 min 0 min 12 W/m 6,4 km/h (2 Bft) 93,48 %
18.05.2023 21:04 14,6 C 13,3 C 10,0 C 61 % 1025,5 hPa 0,0 l/m 0 min 0 min 11 W/m 9,7 km/h (2 Bft) 93,88 %
18.05.2023 21:06 14,5 C 13,3 C 10,0 C 61 % 1025,5 hPa 0,0 l/m 0 min 0 min 11 W/m 6,4 km/h (2 Bft) 93,48 %
18.05.2023 21:08 14,4 C 13,3 C 10,0 C 61 % 1025,5 hPa 0,0 l/m 0 min 0 min 9 W/m 9,7 km/h (2 Bft) 97,87 %
18.05.2023 21:10 14,3 C 13,3 C 10,0 C 62 % 1025,5 hPa 0,0 l/m 0 min 0 min 9 W/m 9,7 km/h (2 Bft) 93,62 %
18.05.2023 21:12 14,3 C 13,3 C 10,0 C 62 % 1025,6 hPa 0,0 l/m 0 min 0 min 8 W/m 6,4 km/h (2 Bft) 95,65 %
18.05.2023 21:14 14,3 C 13,3 C 9,4 C 63 % 1025,6 hPa 0,0 l/m 0 min 0 min 7 W/m 9,7 km/h (2 Bft) 93,62 %
18.05.2023 21:16 14,3 C 13,3 C 9,4 C 62 % 1025,6 hPa 0,0 l/m 0 min 0 min 6 W/m 3,2 km/h (1 Bft) 93,62 %
18.05.2023 21:18 14,3 C 13,3 C 9,4 C 63 % 1025,6 hPa 0,0 l/m 0 min 0 min 5 W/m 3,2 km/h (1 Bft) 93,62 %
18.05.2023 21:20 14,2 C 13,3 C 9,4 C 63 % 1025,6 hPa 0,0 l/m 0 min 0 min 5 W/m 12,9 km/h (3 Bft) 95,74 %
18.05.2023 21:22 14,2 C 13,3 C 9,4 C 62 % 1025,6 hPa 0,0 l/m 0 min 0 min 2 W/m 6,4 km/h (2 Bft) 91,49 %
18.05.2023 21:24 14,1 C 12,8 C 9,4 C 63 % 1025,7 hPa 0,0 l/m 0 min 0 min 0 W/m 3,2 km/h (1 Bft) 95,65 %
18.05.2023 21:26 14,1 C 12,8 C 9,4 C 63 % 1025,7 hPa 0,0 l/m 0 min 0 min 0 W/m 6,4 km/h (2 Bft) 100,00 %
18.05.2023 21:28 14,1 C 12,8 C 9,4 C 63 % 1025,7 hPa 0,0 l/m 0 min 0 min 0 W/m 6,4 km/h (2 Bft) 97,87 %
18.05.2023 21:30 14,0 C 12,8 C 9,4 C 63 % 1025,7 hPa 0,0 l/m 0 min 0 min 0 W/m 6,4 km/h (2 Bft) 100,00 %
18.05.2023 21:32 13,9 C 12,8 C 9,4 C 63 % 1025,7 hPa 0,0 l/m 0 min 0 min 0 W/m 6,4 km/h (2 Bft) 100,00 %
18.05.2023 21:34 13,9 C 12,8 C 9,4 C 63 % 1025,7 hPa 0,0 l/m 0 min 0 min 0 W/m 3,2 km/h (1 Bft) 97,87 %
18.05.2023 21:36 13,9 C 12,8 C 9,4 C 63 % 1025,7 hPa 0,0 l/m 0 min 0 min 0 W/m 12,9 km/h (3 Bft) 100,00 %
18.05.2023 21:38 13,8 C 12,8 C 9,4 C 64 % 1025,8 hPa 0,0 l/m 0 min 0 min 0 W/m 6,4 km/h (2 Bft) 100,00 %
18.05.2023 21:40 13,8 C 12,8 C 9,4 C 64 % 1025,8 hPa 0,0 l/m 0 min 0 min 0 W/m 6,4 km/h (2 Bft) 97,87 %
18.05.2023 21:42 13,8 C 12,8 C 9,4 C 64 % 1025,8 hPa 0,0 l/m 0 min 0 min 0 W/m 6,4 km/h (2 Bft) 100,00 %
18.05.2023 21:44 13,7 C 12,8 C 9,4 C 64 % 1025,8 hPa 0,0 l/m 0 min 0 min 0 W/m 6,4 km/h (2 Bft) 97,87 %
18.05.2023 21:46 13,7 C 12,8 C 9,4 C 64 % 1025,9 hPa 0,0 l/m 0 min 0 min 0 W/m 3,2 km/h (1 Bft) 95,74 %
18.05.2023 21:48 13,7 C 12,2 C 8,9 C 64 % 1025,9 hPa 0,0 l/m 0 min 0 min 0 W/m 3,2 km/h (1 Bft) 97,87 %
18.05.2023 21:50 13,6 C 12,2 C 8,9 C 65 % 1025,9 hPa 0,0 l/m 0 min 0 min 0 W/m 6,4 km/h (2 Bft) 97,83 %
18.05.2023 21:52 13,6 C 12,2 C 8,9 C 64 % 1026,0 hPa 0,0 l/m 0 min 0 min 0 W/m 6,4 km/h (2 Bft) 91,49 %
18.05.2023 21:54 13,6 C 12,2 C 8,9 C 65 % 1026,0 hPa 0,0 l/m 0 min 0 min 0 W/m 9,7 km/h (2 Bft) 97,87 %
18.05.2023 21:56 13,5 C 12,2 C 8,9 C 65 % 1026,0 hPa 0,0 l/m 0 min 0 min 0 W/m 3,2 km/h (1 Bft) 97,87 %
18.05.2023 21:58 13,5 C 12,2 C 8,9 C 65 % 1025,9 hPa 0,0 l/m 0 min 0 min 0 W/m 3,2 km/h (1 Bft) 95,74 %
18.05.2023 22:00 13,4 C 12,2 C 8,9 C 65 % 1025,9 hPa 0,0 l/m 0 min 0 min 0 W/m 6,4 km/h (2 Bft) 95,74 %
18.05.2023 22:02 13,4 C 12,2 C 8,9 C 65 % 1025,9 hPa 0,0 l/m 0 min 0 min 0 W/m 3,2 km/h (1 Bft) 97,87 %
18.05.2023 22:04 13,4 C 12,2 C 8,9 C 65 % 1026,0 hPa 0,0 l/m 0 min 0 min 0 W/m 12,9 km/h (3 Bft) 93,48 %
18.05.2023 22:06 13,3 C 12,2 C 8,9 C 65 % 1026,0 hPa 0,0 l/m 0 min 0 min 0 W/m 6,4 km/h (2 Bft) 95,83 %
18.05.2023 22:08 13,3 C 12,2 C 8,9 C 65 % 1026,0 hPa 0,0 l/m 0 min 0 min 0 W/m 3,2 km/h (1 Bft) 97,87 %
18.05.2023 22:10 13,3 C 12,2 C 8,9 C 65 % 1026,0 hPa 0,0 l/m 0 min 0 min 0 W/m 3,2 km/h (1 Bft) 94,29 %
18.05.2023 22:12 13,3 C 12,2 C 8,9 C 66 % 1026,1 hPa 0,0 l/m 0 min 0 min 0 W/m 3,2 km/h (1 Bft) 97,87 %
18.05.2023 22:14 13,2 C 12,2 C 8,9 C 66 % 1026,1 hPa 0,0 l/m 0 min 0 min 0 W/m 6,4 km/h (2 Bft) 95,74 %
18.05.2023 22:16 13,2 C 12,2 C 8,9 C 66 % 1026,1 hPa 0,0 l/m 0 min 0 min 0 W/m 6,4 km/h (2 Bft) 95,74 %
18.05.2023 22:18 13,1 C 12,2 C 8,9 C 66 % 1026,1 hPa 0,0 l/m 0 min 0 min 0 W/m 6,4 km/h (2 Bft) 95,74 %
18.05.2023 22:20 13,1 C 12,2 C 8,9 C 66 % 1026,1 hPa 0,0 l/m 0 min 0 min 0 W/m 3,2 km/h (1 Bft) 97,83 %
18.05.2023 22:22 13,1 C 11,7 C 8,3 C 67 % 1026,1 hPa 0,0 l/m 0 min 0 min 0 W/m 6,4 km/h (2 Bft) 97,87 %
18.05.2023 22:24 13,1 C 11,7 C 8,3 C 67 % 1026,1 hPa 0,0 l/m 0 min 0 min 0 W/m 3,2 km/h (1 Bft) 97,87 %
18.05.2023 22:26 13,0 C 11,7 C 8,3 C 67 % 1026,1 hPa 0,0 l/m 0 min 0 min 0 W/m 3,2 km/h (1 Bft) 93,88 %
18.05.2023 22:28 12,9 C 11,7 C 8,3 C 67 % 1026,2 hPa 0,0 l/m 0 min 0 min 0 W/m 3,2 km/h (1 Bft) 97,87 %
18.05.2023 22:30 12,9 C 11,7 C 8,3 C 67 % 1026,2 hPa 0,0 l/m 0 min 0 min 0 W/m 3,2 km/h (1 Bft) 95,74 %
18.05.2023 22:32 12,9 C 11,7 C 8,3 C 67 % 1026,2 hPa 0,0 l/m 0 min 0 min 0 W/m 6,4 km/h (2 Bft) 97,87 %
18.05.2023 22:34 12,8 C 11,7 C 8,3 C 67 % 1026,2 hPa 0,0 l/m 0 min 0 min 0 W/m 12,9 km/h (3 Bft) 95,74 %
18.05.2023 22:36 12,8 C 11,7 C 8,3 C 67 % 1026,2 hPa 0,0 l/m 0 min 0 min 0 W/m 9,7 km/h (2 Bft) 95,65 %
18.05.2023 22:38 12,8 C 11,7 C 8,3 C 67 % 1026,2 hPa 0,0 l/m 0 min 0 min 0 W/m 6,4 km/h (2 Bft) 95,74 %
18.05.2023 22:40 12,8 C 11,7 C 8,3 C 67 % 1026,2 hPa 0,0 l/m 0 min 0 min 0 W/m 3,2 km/h (1 Bft) 95,74 %
18.05.2023 22:42 12,8 C 11,7 C 8,3 C 68 % 1026,2 hPa 0,0 l/m 0 min 0 min 0 W/m 6,4 km/h (2 Bft) 91,49 %
18.05.2023 22:44 12,7 C 11,7 C 8,3 C 68 % 1026,3 hPa 0,0 l/m 0 min 0 min 0 W/m 3,2 km/h (1 Bft) 95,74 %
18.05.2023 22:46 12,7 C 11,7 C 8,3 C 68 % 1026,3 hPa 0,0 l/m 0 min 0 min 0 W/m 3,2 km/h (1 Bft) 95,74 %
18.05.2023 22:48 12,7 C 11,7 C 8,3 C 67 % 1026,2 hPa 0,0 l/m 0 min 0 min 0 W/m 3,2 km/h (1 Bft) 97,87 %
18.05.2023 22:50 12,7 C 11,7 C 8,3 C 68 % 1026,3 hPa 0,0 l/m 0 min 0 min 0 W/m 3,2 km/h (1 Bft) 95,65 %
18.05.2023 22:52 12,6 C 11,7 C 8,3 C 69 % 1026,3 hPa 0,0 l/m 0 min 0 min 0 W/m 3,2 km/h (1 Bft) 97,87 %
18.05.2023 22:54 12,6 C 11,1 C 7,8 C 69 % 1026,3 hPa 0,0 l/m 0 min 0 min 0 W/m 3,2 km/h (1 Bft) 95,74 %
18.05.2023 22:56 12,6 C 11,1 C 7,8 C 69 % 1026,3 hPa 0,0 l/m 0 min 0 min 0 W/m 3,2 km/h (1 Bft) 91,49 %
18.05.2023 22:58 12,5 C 11,1 C 7,8 C 69 % 1026,3 hPa 0,0 l/m 0 min 0 min 0 W/m 3,2 km/h (1 Bft) 93,62 %
18.05.2023 23:00 12,4 C 11,1 C 7,8 C 69 % 1026,3 hPa 0,0 l/m 0 min 0 min 0 W/m 6,4 km/h (2 Bft) 95,74 %
18.05.2023 23:02 12,4 C 11,7 C 7,8 C 69 % 1026,3 hPa 0,0 l/m 0 min 0 min 0 W/m 9,7 km/h (2 Bft) 93,48 %
18.05.2023 23:04 12,4 C 11,7 C 7,8 C 69 % 1026,3 hPa 0,0 l/m 0 min 0 min 0 W/m 3,2 km/h (1 Bft) 95,83 %
18.05.2023 23:06 12,4 C 11,7 C 7,8 C 69 % 1026,3 hPa 0,0 l/m 0 min 0 min 0 W/m 3,2 km/h (1 Bft) 95,74 %
18.05.2023 23:08 12,3 C 11,1 C 7,8 C 69 % 1026,3 hPa 0,0 l/m 0 min 0 min 0 W/m 6,4 km/h (2 Bft) 97,87 %
18.05.2023 23:10 12,3 C 11,1 C 7,8 C 69 % 1026,3 hPa 0,0 l/m 0 min 0 min 0 W/m 3,2 km/h (1 Bft) 97,87 %
18.05.2023 23:12 12,3 C 11,1 C 7,8 C 69 % 1026,3 hPa 0,0 l/m 0 min 0 min 0 W/m 9,7 km/h (2 Bft) 95,74 %
18.05.2023 23:14 12,3 C 11,1 C 7,8 C 69 % 1026,3 hPa 0,0 l/m 0 min 0 min 0 W/m 9,7 km/h (2 Bft) 97,87 %
18.05.2023 23:16 12,3 C 11,1 C 7,8 C 69 % 1026,3 hPa 0,0 l/m 0 min 0 min 0 W/m 6,4 km/h (2 Bft) 97,83 %
18.05.2023 23:18 12,2 C 11,7 C 7,8 C 69 % 1026,3 hPa 0,0 l/m 0 min 0 min 0 W/m 9,7 km/h (2 Bft) 95,74 %
18.05.2023 23:20 12,2 C 11,1 C 7,8 C 69 % 1026,3 hPa 0,0 l/m 0 min 0 min 0 W/m 3,2 km/h (1 Bft) 97,87 %
18.05.2023 23:22 12,2 C 11,1 C 7,8 C 69 % 1026,3 hPa 0,0 l/m 0 min 0 min 0 W/m 3,2 km/h (1 Bft) 97,87 %
18.05.2023 23:24 12,2 C 11,1 C 7,8 C 69 % 1026,3 hPa 0,0 l/m 0 min 0 min 0 W/m 3,2 km/h (1 Bft) 97,87 %
18.05.2023 23:26 12,2 C 11,1 C 7,8 C 69 % 1026,4 hPa 0,0 l/m 0 min 0 min 0 W/m 6,4 km/h (2 Bft) 95,74 %
18.05.2023 23:28 12,2 C 11,1 C 7,8 C 69 % 1026,4 hPa 0,0 l/m 0 min 0 min 0 W/m 6,4 km/h (2 Bft) 100,00 %
18.05.2023 23:30 12,2 C 11,1 C 7,8 C 69 % 1026,4 hPa 0,0 l/m 0 min 0 min 0 W/m 6,4 km/h (2 Bft) 97,83 %
18.05.2023 23:32 12,1 C 11,1 C 7,8 C 69 % 1026,4 hPa 0,0 l/m 0 min 0 min 0 W/m 3,2 km/h (1 Bft) 100,00 %
18.05.2023 23:34 12,1 C 11,1 C 7,8 C 70 % 1026,4 hPa 0,0 l/m 0 min 0 min 0 W/m 6,4 km/h (2 Bft) 100,00 %
18.05.2023 23:36 12,1 C 11,1 C 7,8 C 70 % 1026,4 hPa 0,0 l/m 0 min 0 min 0 W/m 3,2 km/h (1 Bft) 100,00 %
18.05.2023 23:38 12,1 C 11,1 C 7,8 C 69 % 1026,4 hPa 0,0 l/m 0 min 0 min 0 W/m 3,2 km/h (1 Bft) 95,74 %
18.05.2023 23:40 12,1 C 11,1 C 7,8 C 70 % 1026,4 hPa 0,0 l/m 0 min 0 min 0 W/m 6,4 km/h (2 Bft) 100,00 %
18.05.2023 23:42 12,0 C 11,1 C 7,8 C 70 % 1026,3 hPa 0,0 l/m 0 min 0 min 0 W/m 9,7 km/h (2 Bft) 97,92 %
18.05.2023 23:44 12,0 C 11,1 C 7,8 C 70 % 1026,4 hPa 0,0 l/m 0 min 0 min 0 W/m 3,2 km/h (1 Bft) 100,00 %
18.05.2023 23:46 11,9 C 11,1 C 7,8 C 70 % 1026,4 hPa 0,0 l/m 0 min 0 min 0 W/m 6,4 km/h (2 Bft) 100,00 %
18.05.2023 23:48 11,9 C 11,1 C 7,8 C 70 % 1026,4 hPa 0,0 l/m 0 min 0 min 0 W/m 3,2 km/h (1 Bft) 97,87 %
18.05.2023 23:50 11,9 C 11,1 C 7,8 C 70 % 1026,4 hPa 0,0 l/m 0 min 0 min 0 W/m 3,2 km/h (1 Bft) 97,87 %
18.05.2023 23:52 11,9 C 11,1 C 7,8 C 70 % 1026,4 hPa 0,0 l/m 0 min 0 min 0 W/m 3,2 km/h (1 Bft) 100,00 %
18.05.2023 23:54 11,8 C 10,6 C 7,2 C 70 % 1026,4 hPa 0,0 l/m 0 min 0 min 0 W/m 6,4 km/h (2 Bft) 100,00 %
18.05.2023 23:56 11,8 C 10,6 C 7,2 C 70 % 1026,4 hPa 0,0 l/m 0 min 0 min 0 W/m 6,4 km/h (2 Bft) 100,00 %
18.05.2023 23:58 11,8 C 10,6 C 7,2 C 70 % 1026,4 hPa 0,0 l/m 0 min 0 min 0 W/m 6,4 km/h (2 Bft) 100,00 %
_ Min-Zeit 05:56 04:08 05:00 16:50 19:04 - - - - 00:00 01:50
Minimum _ 6,2 C 5,6 C 2,2 C 49 % 1025,3 hPa - - - - 0,0 km/h (0 Bft) 53,33 %
_ Max-Zeit 16:16 13:34 12:48 06:36 08:48 00:00 18:08 00:00 13:34 17:48 00:02
Maximum _ 18,7 C 26,7 C 20,0 C 87 % 1028,4 hPa 0,0 l/m 4 min 0 min 975 W/m 25,7 km/h
W-NW (4 Bft)
100,00 %
Durchschnitt _ 12,8 C 14,7 C 9,0 C 67 % 1027,1 hPa #0,0 l/m #11:32 h #0 min. 502 W/m 9,3 km/h (2 Bft) 97,23 %
© 2023 W. Hausmann